GFSGL_sfc_temp_000.txt.gz
Temp
74 72 71 70 70 68 67 67 68 67 67 67 67 67 67 67 67 66 65 66 65 64 63 63 64 62 60 59 58 57 56 55 54 56 57 62 61 62 65 64 67 69 70
75 70 71 70 69 67 67 68 67 67 67 67 67 66 66 67 66 65 65 66 65 64 63 62 63 65 60 59 58 57 56 56 56 54 57 58 60 62 62 62 66 71 70
73 70 68 69 68 67 67 67 67 67 67 67 67 66 66 67 66 66 65 66 65 64 64 62 62 61 60 58 58 57 57 58 56 56 57 59 59 61 62 62 62 64 69
71 71 68 70 69 68 67 67 67 67 66 66 66 67 66 67 67 66 66 64 64 64 64 63 62 61 61 59 58 58 57 56 55 56 56 57 58 62 61 58 58 61 63
72 71 70 72 70 68 67 68 67 67 67 66 66 66 66 67 70 66 65 65 63 63 63 63 62 63 65 62 59 59 57 56 57 57 57 56 58 59 59 62 58 60 62
71 71 69 70 69 69 70 68 66 66 66 66 66 66 66 69 67 66 67 63 63 62 60 61 61 65 64 65 64 64 62 56 56 56 56 55 57 58 61 58 57 56 56
69 69 68 69 68 71 71 67 67 67 65 65 66 65 66 66 65 64 66 62 61 60 59 58 60 62 63 61 62 63 62 62 62 57 56 56 56 59 59 57 57 56 58
68 69 71 71 70 71 69 67 68 65 65 66 65 65 65 66 63 62 63 62 60 59 59 59 58 59 59 59 58 56 56 56 57 59 58 60 60 62 59 58 57 57 59
68 68 71 72 71 69 67 65 68 65 64 63 65 65 62 63 61 60 60 59 58 58 57 58 58 58 59 58 56 54 54 55 60 60 60 59 60 60 60 58 57 56 55
68 70 73 72 71 69 68 67 70 65 63 65 64 63 61 62 59 58 58 57 56 55 56 57 58 57 55 54 53 52 54 56 55 56 58 59 60 60 61 59 57 56 56
69 70 71 73 73 72 71 67 65 64 61 61 62 62 61 60 59 56 55 56 56 55 54 54 54 54 51 51 51 50 52 53 55 55 56 57 58 58 58 58 58 58 57
65 65 64 63 66 72 67 65 63 62 61 60 61 59 59 58 56 55 55 53 56 53 53 52 52 51 51 51 51 52 52 54 54 54 54 54 55 56 56 58 59 61 63
63 63 62 64 62 63 65 64 62 61 59 59 58 57 55 55 53 54 54 54 55 52 52 52 53 50 51 53 54 54 54 53 52 51 51 52 54 55 56 58 59 60 62
62 62 62 61 61 64 64 63 61 60 58 57 56 55 53 51 50 50 51 50 52 52 51 47 51 54 53 53 51 51 51 52 52 51 51 53 54 54 54 57 56 57 59
63 63 62 63 63 60 55 55 56 51 53 54 53 53 53 50 50 46 46 49 50 49 45 50 51 52 52 47 47 48 50 49 48 49 51 51 51 52 53 55 56 56 55
59 63 61 62 59 55 52 50 46 45 44 44 46 49 48 48 45 44 43 42 42 43 47 46 46 45 44 44 44 45 47 49 46 48 50 50 50 50 51 54 55 55 54
62 62 61 59 58 54 52 51 50 49 46 44 44 45 47 45 43 42 42 42 44 47 45 43 42 41 41 41 41 43 45 49 47 48 48 50 51 50 50 52 52 53 54
61 57 58 58 58 55 53 51 50 49 48 48 45 45 44 44 44 43 45 47 48 44 42 41 43 41 40 40 41 41 45 48 50 49 51 52 48 50 49 49 50 50 51
61 59 59 58 58 56 56 55 53 52 50 49 47 46 44 44 44 43 46 50 47 42 42 41 42 42 40 40 40 41 42 43 46 46 47 49 49 47 48 49 49 48 49
60 59 59 57 55 54 53 53 52 51 50 47 47 46 46 46 46 45 45 44 43 43 42 42 42 40 40 39 39 39 40 40 41 42 43 45 47 47 48 48 49 48 48
62 60 60 56 56 54 53 53 53 50 49 47 47 48 44 45 44 44 44 43 43 42 42 41 40 40 39 38 36 35 36 37 37 38 40 42 44 44 46 49 51 51 49
58 59 60 57 54 54 53 52 51 53 49 48 45 48 44 45 44 44 44 44 44 43 42 41 39 37 36 35 34 33 33 34 35 36 37 40 43 45 45 47 49 51 52
56 55 54 54 53 53 52 54 56 55 53 53 50 49 46 44 44 44 45 45 44 42 41 40 38 36 35 34 33 32 31 31 32 33 34 38 41 43 44 44 46 47 49
54 54 52 51 51 50 51 52 53 53 56 54 52 50 45 45 44 44 44 44 43 42 40 39 38 36 35 33 32 31 30 30 32 32 35 38 41 41 43 44 44 46 47
53 52 52 51 50 49 49 50 51 50 52 54 52 48 46 45 44 45 44 43 42 40 39 38 37 38 36 35 32 31 32 33 34 35 36 40 41 41 42 42 42 44 45
53 53 52 50 49 49 48 48 48 49 48 48 47 46 47 46 44 44 43 43 42 40 40 38 38 38 38 36 34 33 31 33 33 33 36 39 39 39 41 41 43 42 43

GFSGL_sfc_temp_003.txt.gz
Temp
73 72 69 68 67 66 66 66 65 65 65 65 66 65 65 65 65 64 64 64 63 63 63 62 63 62 59 58 58 56 55 54 54 54 55 58 58 60 62 62 63 63 64
75 69 69 68 68 66 65 66 66 65 65 66 65 65 64 64 64 64 64 65 64 63 63 62 62 64 60 58 57 57 56 55 54 54 55 57 56 61 61 59 62 66 65
73 70 68 66 67 65 66 66 66 65 65 65 65 64 64 65 64 64 64 64 63 64 63 62 61 60 59 58 57 57 57 57 55 55 57 62 60 60 59 60 60 63 65
73 72 68 68 68 70 70 68 66 65 64 64 65 66 65 65 65 64 64 63 63 63 63 62 61 60 60 59 58 58 57 56 55 54 57 59 58 60 59 58 59 63 62
73 71 71 68 70 70 68 67 67 67 68 65 65 65 65 65 68 65 64 64 63 62 62 62 61 63 65 62 59 58 56 56 55 55 56 57 56 56 57 59 58 60 62
72 72 69 67 68 70 68 66 66 69 67 64 64 64 64 68 66 66 66 63 63 61 60 59 59 64 63 65 64 64 61 56 55 55 55 54 55 56 59 59 58 55 54
72 70 68 67 67 69 70 66 66 68 66 63 64 64 64 65 64 63 66 62 61 60 57 57 58 61 61 59 61 62 62 62 62 57 54 54 54 57 60 56 56 55 56
70 69 69 68 68 69 65 67 69 68 66 65 63 63 63 65 62 61 63 61 59 58 58 58 56 56 57 58 57 55 55 55 55 57 55 56 57 59 60 58 57 56 57
68 68 67 68 70 67 68 71 72 64 63 63 63 63 62 62 60 59 59 59 58 57 56 56 57 56 58 58 55 53 52 53 58 59 59 58 58 59 59 57 55 54 53
69 69 70 70 71 67 69 70 70 65 63 62 64 62 61 62 59 57 57 57 56 55 55 55 58 56 55 54 52 50 52 52 52 54 57 57 58 58 60 58 56 53 53
68 67 67 68 68 67 66 64 64 64 62 62 64 63 63 61 60 56 55 55 55 54 53 53 53 55 51 52 50 50 50 51 52 53 55 56 56 56 57 57 57 55 54
66 66 64 64 66 64 61 61 62 63 62 60 60 60 60 59 54 55 53 55 56 53 52 51 51 52 50 51 51 53 52 53 50 52 52 52 52 53 55 56 57 57 59
64 62 62 63 64 63 61 60 60 61 61 60 59 58 58 55 53 52 53 53 54 51 51 51 52 49 48 52 53 54 53 48 48 49 50 51 52 53 54 55 57 58 59
63 62 62 63 62 63 62 61 62 61 60 59 59 58 54 51 50 50 50 49 52 51 51 46 50 51 53 53 49 48 47 47 47 46 48 51 52 52 52 54 54 55 56
62 62 61 62 61 61 56 54 58 54 54 57 56 54 52 49 49 47 47 48 47 46 44 50 51 48 46 44 44 44 45 45 44 45 46 48 50 50 51 53 53 53 54
60 61 61 60 62 60 54 50 46 47 44 43 47 50 47 48 46 44 43 42 41 43 50 50 45 43 41 40 40 41 42 46 44 44 45 47 47 48 49 51 52 51 52
60 60 61 59 59 55 53 51 49 47 44 42 43 44 46 45 44 43 41 41 42 45 49 45 41 40 39 39 39 39 40 43 43 43 43 46 47 46 48 48 49 50 50
58 57 59 58 57 54 53 52 51 48 47 47 43 44 43 44 43 44 44 46 46 46 41 40 39 39 38 38 38 38 39 41 42 43 44 45 45 44 46 47 48 48 49
58 57 57 57 56 53 53 51 50 49 48 47 46 45 43 44 40 43 44 45 43 42 41 39 39 39 38 38 38 38 38 39 39 39 41 43 44 42 43 46 47 48 48
57 58 57 56 55 54 53 54 52 49 49 47 47 47 45 45 45 44 43 42 41 40 40 39 39 39 38 37 36 35 36 37 36 37 38 40 42 43 44 44 45 47 47
56 56 57 55 54 53 52 52 52 53 50 48 48 47 46 50 47 45 42 41 41 41 40 39 38 37 36 35 34 34 34 35 35 35 36 38 40 41 43 44 47 51 48
55 55 54 54 53 55 54 53 50 49 48 50 48 48 43 49 47 45 43 42 42 41 40 39 37 35 34 33 32 32 32 32 33 34 35 37 39 40 41 43 45 48 48
54 54 53 52 52 52 51 50 50 50 50 52 49 49 48 48 46 42 43 43 42 41 39 38 36 33 32 32 32 31 31 31 31 32 34 37 39 39 40 40 42 43 43
53 53 52 51 50 50 50 50 54 52 54 52 51 50 48 48 43 43 43 43 41 40 39 37 36 34 33 31 31 30 30 30 31 32 34 37 39 39 39 40 40 42 43
52 51 50 49 49 48 48 49 50 50 50 50 47 50 46 44 43 43 43 41 40 39 38 37 35 36 35 33 31 31 33 33 34 35 35 38 39 40 40 39 39 40 41
51 52 50 48 48 47 46 46 47 46 47 47 46 44 45 45 43 43 42 40 39 38 37 36 36 37 37 35 35 34 31 33 34 33 36 37 37 38 39 39 41 40 40

GFSGL_sfc_temp_006.txt.gz
Temp
73 72 71 69 68 67 67 67 66 66 66 66 66 67 67 67 68 66 66 67 67 67 67 66 66 66 66 65 63 62 60 58 57 64 63 66 64 65 66 67 67 66 68
75 71 70 71 69 69 67 67 66 66 66 66 67 67 67 67 67 66 67 69 67 67 67 66 66 68 65 65 63 62 61 60 58 58 64 64 63 65 65 63 65 68 68
75 70 70 68 68 67 67 66 66 66 66 66 67 66 66 66 66 66 67 67 66 66 67 66 66 65 64 64 63 62 61 62 59 59 61 65 64 66 64 64 64 65 67
74 71 69 69 68 68 67 67 66 67 66 66 66 66 66 66 67 67 67 66 66 67 67 66 66 65 64 64 63 62 62 61 61 59 61 62 63 65 64 61 62 66 65
72 71 70 70 70 68 67 67 67 66 67 67 66 66 67 68 70 67 67 66 66 67 67 66 66 66 66 64 63 63 61 60 60 59 60 62 62 63 61 64 61 63 64
72 71 71 69 69 69 68 68 66 67 66 67 66 66 66 70 66 65 68 67 67 66 66 65 64 65 64 64 64 64 64 61 60 59 61 59 60 61 63 61 61 59 57
72 71 71 69 67 65 65 66 66 66 67 66 66 66 66 67 63 63 65 66 66 65 63 63 63 64 64 63 63 62 62 62 62 62 57 59 59 61 61 59 58 57 57
71 71 69 68 67 65 65 65 66 65 65 66 66 66 66 67 62 61 63 66 65 64 63 62 61 62 62 62 62 61 61 61 61 62 60 60 60 61 60 60 57 57 58
70 69 69 68 67 67 66 65 67 65 65 66 66 65 64 65 59 59 61 64 63 63 62 61 61 61 59 58 61 59 59 59 60 59 58 58 58 58 59 57 55 54 53
70 70 69 69 67 65 66 66 66 65 65 65 65 64 61 63 59 57 59 62 62 61 60 60 58 58 55 54 59 57 56 58 57 57 58 59 59 59 59 59 57 53 53
69 70 70 69 68 67 65 64 63 64 64 63 62 61 63 63 63 57 55 61 62 60 59 61 59 54 52 52 50 56 55 56 56 55 56 58 58 58 59 60 58 55 52
67 66 66 66 66 64 63 62 63 62 62 63 63 61 59 62 57 56 53 56 58 60 60 59 56 51 50 50 53 52 52 54 54 54 54 54 53 55 57 56 57 56 56
64 63 64 64 64 63 62 62 62 63 61 62 62 62 62 59 57 52 52 51 53 57 58 55 52 49 48 52 52 53 52 53 52 51 51 52 53 55 55 55 56 56 57
63 63 63 63 62 62 62 63 62 61 61 61 62 61 60 57 57 56 57 57 54 56 54 55 53 53 53 54 53 52 52 52 52 49 50 51 53 53 52 54 52 53 53
63 62 62 61 62 62 61 58 60 57 57 61 60 61 59 56 56 52 52 56 56 52 50 55 55 55 52 52 52 50 50 52 50 50 48 49 50 51 50 52 51 51 51
63 61 61 61 61 61 54 52 46 45 45 44 45 54 55 50 45 44 43 42 40 42 52 55 53 49 50 50 50 50 51 51 51 50 50 49 50 48 48 50 50 50 50
63 60 61 61 61 58 56 54 53 49 43 42 43 44 46 45 43 42 41 41 41 45 54 53 52 50 50 49 49 49 49 50 48 50 48 50 50 49 48 48 48 48 49
62 57 61 60 59 57 56 55 54 54 53 52 45 46 43 42 43 42 43 46 53 51 52 51 50 49 49 49 49 49 48 49 49 48 48 48 49 48 48 48 48 47 48
60 60 61 60 58 56 56 55 55 54 53 52 51 46 43 41 40 42 44 54 53 51 50 50 50 49 49 49 48 47 46 47 47 47 48 47 49 49 49 49 46 47 48
61 58 58 59 56 55 55 55 54 53 52 53 53 54 52 50 53 53 52 51 50 50 50 50 49 49 48 47 46 46 47 47 46 47 46 47 48 50 50 50 50 46 48
62 61 58 59 57 57 57 56 55 54 54 54 55 53 46 55 54 52 52 51 51 50 50 50 48 47 46 46 45 46 46 47 46 46 46 47 48 49 51 52 52 53 53
61 59 59 59 57 57 56 56 56 55 54 55 55 53 43 55 54 53 52 52 52 51 51 49 48 48 47 46 45 46 46 46 46 45 46 47 48 50 51 52 52 52 53
58 59 57 57 57 54 56 56 56 56 55 56 55 54 50 54 54 53 51 52 51 50 49 48 47 46 45 45 45 45 46 46 44 43 45 47 49 49 50 51 52 51 51
59 58 57 56 56 57 56 56 57 52 57 54 53 51 53 52 52 52 52 52 51 50 48 48 47 46 44 44 45 45 44 45 44 45 45 47 49 48 50 51 51 51 51
57 57 56 55 55 56 56 57 58 58 57 54 55 55 55 55 53 52 52 52 51 49 48 47 47 46 45 44 44 45 40 34 40 37 48 49 49 49 50 51 51 52 51
57 57 56 56 55 55 55 55 55 56 56 56 55 54 54 54 53 53 52 50 50 49 48 47 47 46 46 46 46 40 33 32 40 33 48 50 50 51 51 50 51 52 51

GFSGL_sfc_temp_009.txt.gz
Temp
83 83 82 82 79 80 78 74 74 77 77 77 77 77 78 77 77 76 76 77 76 76 77 75 75 75 77 77 76 75 74 73 69 75 78 76 72 73 75 76 77 76 78
85 82 81 80 79 76 77 77 77 70 77 77 77 76 77 78 78 76 76 78 76 76 77 76 76 78 74 74 76 73 73 73 71 67 73 75 74 74 73 72 75 78 77
86 84 81 78 78 78 75 76 74 74 76 77 76 75 76 77 77 77 76 76 77 76 76 76 76 75 74 76 74 75 76 71 71 67 70 75 76 76 74 74 73 74 76
88 84 80 79 79 76 74 77 75 71 73 74 75 77 77 78 77 77 77 76 76 77 77 77 76 75 74 74 74 73 73 72 72 71 71 73 75 75 74 72 72 76 75
85 83 80 79 79 79 75 68 66 67 68 70 72 74 76 77 80 76 77 77 76 77 77 76 76 75 70 70 73 73 71 72 73 72 71 73 73 73 70 73 71 73 73
83 81 81 79 78 75 72 70 67 66 66 67 69 70 72 77 69 67 73 77 77 76 75 77 76 69 69 65 65 65 67 69 68 66 69 69 67 69 71 70 69 68 65
80 80 79 78 76 74 72 71 69 66 66 67 68 69 73 75 65 64 66 76 76 76 75 75 75 77 68 73 68 64 64 63 63 67 64 66 66 68 66 64 64 60 59
79 79 79 77 75 74 72 71 69 67 69 66 69 72 74 75 62 61 64 74 74 76 75 74 72 71 72 69 70 70 71 71 70 71 69 68 68 68 65 63 58 57 61
79 78 78 77 75 73 72 69 71 68 68 70 70 71 72 72 60 59 63 68 69 69 74 71 70 70 63 59 66 67 68 69 66 60 59 58 58 58 60 60 58 59 58
80 79 79 76 75 73 71 69 71 71 69 69 71 73 70 73 58 57 61 64 65 68 71 67 60 64 56 55 66 67 65 67 67 67 67 66 64 66 61 65 62 55 57
81 79 76 75 74 74 70 69 69 68 65 65 68 71 69 68 67 55 55 68 65 68 73 72 71 56 53 52 51 66 64 61 64 65 67 68 69 69 70 69 67 64 57
77 76 73 72 71 69 67 67 70 68 65 63 66 66 67 71 58 56 54 56 62 70 72 73 67 53 50 51 55 53 53 55 66 66 66 66 66 67 68 66 64 65 64
74 72 71 72 70 68 69 67 65 66 69 66 64 64 72 70 68 52 52 52 54 65 71 62 53 50 49 51 55 53 53 65 65 64 64 64 65 66 64 64 66 65 64
71 71 71 71 69 70 71 70 67 66 66 62 69 65 69 68 71 69 67 63 57 62 58 68 58 55 53 60 60 61 63 64 63 62 62 64 65 66 65 65 63 62 56
72 72 71 72 72 70 66 64 70 67 61 65 64 71 72 69 69 61 62 67 71 61 61 68 67 67 66 65 61 62 64 64 62 63 62 63 63 64 64 64 63 61 55
71 72 72 73 72 72 66 59 45 45 44 44 45 61 64 51 45 45 45 43 42 43 62 66 66 65 64 64 64 64 64 61 62 61 62 62 61 61 62 62 64 61 55
72 71 73 70 73 70 67 69 67 54 43 41 43 46 50 47 43 41 41 41 41 45 65 66 65 64 64 63 63 64 62 62 58 61 61 61 61 61 60 61 60 58 54
72 59 73 73 72 67 66 67 70 68 68 64 46 51 42 42 41 41 42 47 60 58 66 65 64 63 62 63 63 62 61 61 61 60 60 61 61 60 60 60 59 54 54
73 74 75 76 74 69 68 67 69 68 69 66 61 52 47 39 42 43 44 66 67 66 65 64 64 63 63 63 62 60 57 59 57 58 60 60 61 60 60 61 61 54 54
73 61 66 72 66 66 66 66 67 67 67 66 66 67 63 58 63 64 64 65 66 66 65 63 62 63 62 61 60 59 59 60 60 60 60 60 61 61 61 61 62 60 60
73 71 64 72 71 71 70 69 69 68 69 68 69 66 53 66 66 66 66 65 65 64 62 63 62 62 61 60 59 60 61 61 60 59 59 60 60 60 62 62 63 63 62
72 69 72 73 70 69 69 67 68 69 70 69 69 62 44 65 67 66 64 64 65 63 64 61 63 63 62 61 59 61 61 60 59 59 59 60 61 61 62 62 63 63 62
71 72 71 70 70 62 67 69 69 70 69 69 69 67 63 66 65 66 64 64 64 63 62 62 61 63 62 60 60 61 61 60 58 57 57 58 60 60 61 62 62 61 61
73 73 71 71 70 71 69 69 70 60 69 69 68 67 66 64 62 63 65 64 63 63 62 61 62 62 58 59 60 61 61 59 58 59 56 58 60 58 61 61 62 61 62
72 71 70 70 69 69 68 70 69 69 69 69 68 62 62 65 67 66 65 64 63 62 60 60 61 58 57 55 57 56 46 36 45 39 58 59 58 58 60 61 61 62 61
71 70 69 69 69 69 69 68 68 69 69 69 69 68 68 67 67 67 65 64 63 62 61 60 60 58 57 57 56 44 34 33 44 32 53 61 60 60 61 60 59 61 60

GFSGL_sfc_temp_012.txt.gz
Temp
90 89 89 89 89 87 87 86 85 85 84 84 83 83 83 82 82 80 81 82 81 80 81 80 80 80 83 85 85 84 82 81 76 80 83 83 80 79 81 81 82 81 83
93 90 89 89 89 88 85 85 83 81 83 83 82 81 81 83 82 80 80 83 80 80 80 80 80 83 80 80 83 79 80 80 78 72 76 79 79 80 80 78 80 84 83
94 92 90 89 88 87 86 85 78 82 77 78 78 75 79 81 80 81 81 81 81 81 81 80 80 81 78 81 80 80 82 81 80 78 76 80 80 81 80 80 79 80 82
98 94 90 89 88 87 86 81 80 75 77 73 77 76 77 78 79 80 80 80 80 81 81 81 81 81 79 79 79 78 78 77 77 77 76 77 74 78 79 76 79 82 81
96 95 92 90 89 87 86 81 80 76 75 72 71 72 74 76 79 78 79 80 79 80 81 82 82 80 74 74 80 78 76 76 77 77 77 76 74 72 74 78 77 78 79
92 92 92 89 85 84 84 80 76 75 74 70 68 68 69 73 71 69 75 81 80 80 79 81 82 73 73 67 66 66 68 71 71 73 72 73 70 73 76 75 74 72 70
89 89 89 88 84 81 82 78 75 75 72 69 68 68 69 72 66 66 68 80 80 80 80 79 77 78 75 78 69 65 65 63 64 69 69 70 70 72 71 67 69 69 69
87 87 87 86 83 80 77 76 76 76 71 71 71 71 72 73 65 64 66 77 78 79 79 78 74 72 77 76 76 76 75 76 73 74 73 73 73 72 69 68 67 65 64
86 86 86 85 83 80 76 73 73 75 71 72 73 75 74 74 61 61 65 78 78 75 74 72 71 71 67 63 72 72 73 74 69 63 61 61 60 60 62 68 67 64 60
87 87 86 85 83 79 78 75 72 71 70 72 76 76 70 71 60 58 61 76 74 66 71 74 62 65 60 58 67 71 71 73 74 73 73 69 65 71 61 66 65 59 64
90 88 86 85 82 79 77 75 72 71 71 74 76 72 70 68 67 56 56 73 71 68 76 68 69 58 55 53 54 71 68 66 68 71 74 75 76 76 77 75 73 71 68
87 86 84 79 78 76 71 70 70 71 74 74 73 75 74 72 61 55 55 57 63 71 68 77 66 54 53 52 56 56 55 56 72 73 73 73 74 74 75 74 70 70 71
83 81 75 75 75 72 69 68 69 70 72 72 75 75 75 77 75 54 53 53 55 68 79 64 54 52 51 52 53 56 53 71 72 71 71 71 72 73 71 71 72 71 71
76 72 72 70 70 71 71 71 72 71 73 76 78 77 70 71 72 74 63 64 58 65 59 70 64 60 53 57 62 62 71 72 70 69 69 71 72 72 71 73 70 71 70
75 75 74 73 74 72 62 62 71 70 62 77 73 67 65 66 71 68 67 78 79 67 70 75 74 75 74 74 73 71 71 71 69 70 69 69 70 70 70 71 69 69 65
77 80 82 81 78 76 74 72 45 48 46 45 46 58 59 53 47 46 44 43 46 48 68 74 74 74 73 73 72 71 71 67 69 68 68 68 68 67 67 68 69 68 63
80 79 80 78 82 78 78 77 74 58 44 42 43 45 49 48 44 43 42 41 41 47 71 74 73 73 72 72 71 71 69 70 65 68 67 67 67 67 66 67 67 67 66
79 63 81 82 82 80 79 79 80 77 74 70 48 54 42 42 42 41 42 47 64 61 74 74 72 72 71 70 70 69 69 69 68 67 67 68 68 67 66 66 67 66 66
80 81 82 82 82 77 80 80 80 79 78 74 65 56 48 42 42 43 44 71 75 75 76 73 73 72 71 70 69 67 65 66 64 65 67 67 68 67 67 67 67 58 59
79 64 72 82 79 80 79 79 78 78 78 76 73 73 68 60 67 69 71 73 74 75 75 72 72 71 69 67 67 66 65 66 67 67 67 67 67 67 67 67 68 67 67
83 79 68 81 81 80 80 80 81 80 79 78 78 74 60 73 75 74 73 72 73 74 72 71 71 69 68 66 65 66 67 68 68 67 67 67 67 67 67 68 69 70 70
83 81 82 82 81 78 80 81 80 79 79 78 77 66 50 71 76 74 73 72 73 72 73 70 70 70 71 68 67 66 67 67 68 66 65 66 67 68 68 68 69 69 69
82 82 81 81 81 68 77 79 79 79 79 78 75 72 69 72 74 74 72 73 72 71 71 70 69 70 71 68 68 68 68 69 67 65 64 65 66 66 67 67 68 67 67
81 82 81 80 79 79 80 79 79 65 76 75 74 74 74 74 74 72 72 72 71 71 71 69 69 69 66 66 68 68 68 67 65 66 63 64 65 63 67 67 67 67 67
81 80 80 80 78 78 78 78 78 74 73 75 75 75 76 74 73 71 73 72 71 70 69 69 69 67 64 63 65 64 42 38 51 38 62 65 64 64 66 67 66 68 66
81 80 80 79 78 77 76 76 76 77 76 76 75 74 72 71 72 73 73 72 72 71 69 69 68 65 64 64 63 43 35 36 47 33 54 64 65 66 65 65 64 67 66

GFSGL_sfc_temp_015.txt.gz
Temp
92 91 90 90 90 89 90 90 89 86 88 88 86 85 84 83 83 81 82 83 82 81 81 81 81 81 82 84 85 84 83 82 78 81 83 84 80 80 81 82 83 79 83
93 91 90 91 90 90 89 90 89 86 88 86 84 83 84 80 81 80 81 82 81 80 80 80 80 84 79 79 82 74 74 81 79 73 78 80 79 80 80 80 82 85 84
95 94 92 90 90 89 89 90 88 86 86 85 84 79 81 77 76 76 80 79 79 81 81 80 81 81 80 81 80 80 82 81 81 79 77 81 78 80 80 77 73 75 80
99 96 92 90 90 91 90 89 88 86 84 82 82 81 79 75 76 76 77 76 79 81 81 82 82 81 80 79 79 78 79 78 78 78 78 77 76 72 80 76 72 71 77
98 97 94 91 91 91 89 89 88 85 83 82 81 80 78 76 78 73 77 76 77 78 80 82 81 81 76 74 79 78 77 77 78 78 77 75 77 73 73 76 73 74 73
96 96 95 91 90 89 89 88 86 84 82 81 80 78 74 75 69 69 75 77 77 79 79 81 81 76 74 69 68 67 69 71 71 73 74 72 70 73 75 72 73 72 69
95 96 94 91 89 88 88 86 83 82 80 78 79 77 75 75 64 66 68 79 77 77 76 79 80 85 75 79 67 65 65 65 65 71 68 69 70 72 71 69 69 69 68
92 92 93 91 90 88 86 85 81 79 76 78 76 75 75 77 64 63 66 73 75 75 75 79 77 75 75 73 71 68 71 77 73 72 72 72 72 73 70 69 68 67 70
91 90 91 91 89 88 84 82 78 77 75 74 75 73 73 74 62 62 65 70 73 71 74 77 76 73 65 64 66 67 72 75 74 66 65 64 63 63 65 70 68 69 67
91 90 90 90 88 86 83 79 79 78 75 74 73 73 70 77 61 60 64 73 72 69 70 72 63 66 59 59 64 68 69 73 75 77 74 69 63 68 62 66 70 67 69
92 91 89 88 87 86 83 79 78 76 74 73 72 75 77 77 75 57 57 71 76 69 76 75 69 58 56 55 57 69 69 67 71 72 73 72 73 77 79 76 70 70 69
91 90 88 87 88 83 78 76 75 72 70 69 71 72 78 76 64 56 55 58 65 76 76 75 74 55 53 54 56 62 58 58 72 72 72 69 73 75 76 75 72 71 72
87 86 86 82 80 78 76 73 73 71 70 69 72 74 73 69 73 55 54 55 56 66 77 65 56 54 55 54 54 57 56 69 71 71 72 73 74 75 73 72 73 72 72
84 78 77 75 74 75 76 74 72 70 70 70 70 71 71 74 71 75 74 65 57 60 60 67 66 65 62 62 64 61 68 70 71 70 70 72 74 73 72 73 72 72 71
76 73 73 74 74 71 68 68 71 66 65 71 75 76 77 75 74 61 63 70 77 70 72 78 73 73 73 70 67 65 66 68 72 72 71 70 70 71 71 72 70 70 68
76 76 79 76 73 73 69 70 46 49 45 44 46 65 64 52 47 46 45 48 50 53 72 75 76 76 73 69 68 66 67 71 73 72 70 69 69 68 68 69 70 69 67
83 83 85 82 79 79 80 78 75 58 46 44 45 48 51 48 44 44 43 43 46 50 72 76 76 77 74 70 71 73 73 73 68 70 69 69 69 69 68 68 68 68 67
82 68 86 86 85 83 82 82 81 78 75 72 49 55 44 44 44 44 44 47 67 62 73 76 76 74 75 74 73 73 72 72 71 70 69 69 69 68 67 67 68 67 66
83 86 87 87 86 82 84 84 84 83 81 75 66 58 50 43 43 43 44 70 76 77 78 77 76 75 74 73 72 71 69 68 67 66 67 69 69 69 68 68 68 59 61
84 68 77 86 83 83 84 83 83 83 75 73 74 73 68 61 66 67 68 72 75 77 78 75 74 73 71 70 69 69 68 68 69 69 69 68 69 69 69 68 69 68 68
85 84 74 85 84 85 84 84 84 84 83 79 79 73 60 71 73 72 72 75 75 76 75 74 73 72 71 69 68 68 68 69 70 69 69 68 68 68 69 69 70 71 71
87 85 85 86 84 83 84 84 84 84 84 83 74 70 52 75 75 75 73 74 76 75 77 74 72 73 73 71 69 68 69 69 69 68 67 68 68 69 68 69 70 70 70
88 86 82 83 79 72 81 83 83 82 80 81 72 70 73 76 77 70 70 73 74 76 76 74 72 72 73 72 70 69 69 70 69 68 66 66 68 68 67 68 69 69 68
82 83 76 76 73 81 80 79 75 64 80 75 72 75 71 72 76 71 71 70 73 74 74 73 72 72 72 69 70 71 71 69 67 67 65 65 67 66 67 68 68 68 69
84 81 72 75 77 81 81 81 80 79 74 72 73 72 70 70 69 71 73 72 70 72 73 73 72 71 68 67 68 66 45 41 56 39 63 65 66 65 68 68 67 68 68
80 78 81 82 81 81 80 80 81 76 73 75 76 72 70 68 72 75 68 66 70 75 73 73 72 70 69 68 66 43 35 40 49 35 54 63 66 67 65 66 66 68 68

GFSGL_sfc_temp_018.txt.gz
Temp
86 86 85 85 86 85 85 85 84 84 83 82 81 80 79 79 79 76 75 76 75 75 75 75 75 77 74 74 74 74 72 71 68 70 71 74 73 73 74 74 75 73 73
87 86 85 85 85 85 84 85 85 83 84 82 81 79 79 79 77 75 74 76 74 74 74 73 74 77 73 74 73 72 72 71 70 67 70 71 71 74 73 72 76 80 74
88 88 86 86 85 84 84 84 85 84 82 82 81 79 78 78 76 75 74 74 72 75 74 73 73 73 73 73 73 72 72 72 71 68 68 70 71 71 69 71 70 71 74
91 89 86 85 85 85 85 84 85 84 82 81 81 79 78 78 77 76 75 74 74 75 75 75 74 74 73 73 73 72 71 70 70 69 69 69 69 70 68 66 67 69 68
89 89 87 86 86 86 85 84 84 84 82 82 80 79 78 78 79 75 75 75 74 74 74 75 75 75 75 73 72 71 70 67 65 64 67 68 67 66 64 67 65 66 67
89 88 87 85 85 84 84 84 83 83 82 81 80 79 77 77 69 69 74 75 75 74 72 74 74 74 73 72 69 65 64 66 65 62 66 66 64 65 67 66 64 64 62
88 88 87 85 84 84 84 83 83 82 82 79 78 78 77 75 64 65 69 76 75 74 72 72 72 77 72 71 66 64 65 64 64 66 64 65 64 65 65 63 63 62 62
88 87 87 86 85 84 83 83 83 83 81 79 77 75 75 73 64 63 66 73 74 73 70 69 70 70 70 67 70 69 67 67 65 66 65 66 66 67 66 64 63 62 63
88 88 88 88 86 84 83 83 83 82 80 77 75 74 72 72 62 62 64 69 69 70 70 69 71 69 68 65 68 67 66 67 70 65 66 64 64 63 64 63 63 61 61
90 89 89 89 87 85 84 82 82 80 77 76 74 73 68 70 60 60 62 69 69 70 70 70 65 69 62 60 65 67 65 66 67 68 68 65 63 65 63 65 65 60 61
91 89 88 87 86 86 83 81 77 75 75 73 71 71 71 70 70 58 58 71 73 71 70 70 69 61 57 55 58 67 65 63 65 66 67 67 68 69 70 68 66 63 61
88 87 86 85 86 85 80 78 75 74 72 70 71 70 71 72 63 57 57 60 66 70 70 73 70 57 53 54 56 61 58 59 65 65 66 66 65 67 66 65 65 64 65
85 84 84 83 81 78 76 74 73 72 70 69 68 69 71 72 71 57 55 56 57 64 68 59 56 55 55 54 55 58 58 62 64 64 64 63 64 65 65 64 65 65 64
82 80 78 77 75 75 74 74 72 70 70 70 71 70 70 70 70 68 65 62 56 61 59 63 60 61 59 64 62 58 61 64 65 64 63 64 65 64 62 63 61 61 60
77 76 74 73 73 67 60 62 71 66 68 71 71 69 68 68 72 67 67 71 69 63 66 69 62 65 65 65 66 66 63 64 63 64 64 63 62 62 61 62 60 60 59
75 75 74 71 71 71 68 63 47 48 46 47 49 68 65 55 48 47 47 49 52 56 66 66 63 66 62 65 63 63 63 62 62 63 64 62 61 60 59 60 59 59 57
75 75 74 72 74 72 72 70 65 55 46 45 46 49 55 49 45 45 45 46 50 56 69 69 69 70 66 65 65 65 63 63 63 64 63 62 61 61 59 59 59 58 58
80 70 78 79 78 77 76 76 75 70 67 65 48 52 44 43 43 43 45 51 63 60 68 69 69 70 70 69 67 67 66 65 64 63 61 61 61 60 59 59 59 58 58
80 76 80 79 80 79 80 79 79 76 74 68 61 54 47 43 44 45 46 66 70 71 67 66 71 70 68 67 66 65 64 63 61 61 60 61 62 61 59 60 60 56 57
74 70 76 82 80 81 81 81 81 79 73 69 69 66 63 60 63 64 64 66 69 72 71 70 69 68 66 65 65 64 64 63 62 62 61 61 61 61 61 61 61 61 59
82 79 70 81 81 81 81 81 81 81 76 73 73 69 57 68 69 69 70 69 71 73 70 70 68 67 67 65 64 64 63 64 63 63 62 61 61 61 60 61 62 63 62
82 81 81 82 82 80 82 82 79 81 71 70 71 65 51 70 74 72 66 67 69 69 72 68 69 68 69 66 63 64 63 63 64 63 61 61 61 62 61 62 63 63 62
80 78 75 76 71 72 73 82 80 73 68 76 75 68 67 72 74 71 68 68 67 66 68 70 69 69 69 66 66 65 64 64 62 62 61 60 61 61 61 61 62 61 61
77 74 71 71 70 77 75 75 65 66 77 76 73 73 72 73 74 66 67 66 66 66 67 70 70 70 66 66 66 66 63 62 61 60 58 59 60 60 61 61 62 61 62
76 71 76 76 73 69 69 71 73 78 77 75 74 74 73 71 68 68 69 68 66 66 66 67 69 70 68 67 64 57 41 42 51 43 58 58 58 59 61 61 61 61 62
76 73 72 68 64 64 72 76 79 72 70 75 75 73 72 71 67 69 66 66 68 67 68 70 69 69 69 67 61 44 35 40 47 39 50 55 57 61 60 60 61 61 61

GFSGL_sfc_temp_021.txt.gz
Temp
81 82 82 81 80 81 77 78 79 77 75 76 77 76 75 73 73 70 69 70 69 70 70 70 69 69 68 68 68 67 67 66 62 64 66 67 67 68 70 69 70 69 69
83 82 81 82 81 80 81 78 78 79 76 78 77 75 75 75 72 72 70 72 69 69 69 68 70 72 69 69 68 66 66 65 64 62 64 66 67 68 68 67 70 75 70
83 82 81 81 81 81 80 81 78 80 78 78 77 76 75 74 73 74 72 69 68 68 69 68 68 69 69 68 70 68 66 67 64 63 63 65 66 66 65 65 66 66 70
83 82 81 81 81 82 82 81 80 80 79 76 77 77 75 74 73 72 69 67 68 68 69 69 70 70 68 70 69 68 66 64 64 63 62 63 63 65 63 62 62 63 65
84 82 82 82 83 82 81 81 81 80 79 78 75 75 74 74 73 71 71 69 68 68 68 69 71 72 72 71 69 66 66 64 63 62 61 61 64 63 59 61 60 61 62
84 83 83 82 81 81 80 80 79 80 78 77 75 73 72 74 70 69 72 72 68 67 66 68 72 72 72 69 67 65 65 63 62 61 61 62 63 63 61 59 59 58 57
85 83 83 82 80 80 80 79 78 79 79 76 75 75 72 73 66 66 69 68 67 67 67 69 70 74 71 68 64 64 64 64 65 66 62 61 60 61 61 59 58 57 57
83 83 83 81 81 81 80 79 80 79 79 76 76 73 73 71 65 64 68 69 67 67 68 68 67 67 67 66 66 64 65 66 65 65 61 65 62 63 61 61 59 57 56
83 82 82 82 81 81 79 80 80 81 78 77 75 75 72 68 62 62 64 66 67 67 67 67 65 66 66 63 67 65 65 65 65 63 63 63 62 62 63 58 56 55 52
85 84 84 83 82 80 81 80 81 79 75 74 72 72 68 68 60 60 63 68 66 66 65 66 65 66 62 61 63 61 63 62 62 61 62 61 61 61 63 59 61 54 53
86 83 83 83 82 81 81 81 76 74 72 70 70 69 68 68 63 58 58 68 68 66 67 66 67 61 58 57 58 62 61 59 61 58 59 59 59 59 60 61 59 56 54
81 83 79 82 82 80 77 75 73 72 71 69 68 67 68 67 62 57 57 60 65 67 63 63 64 59 56 55 56 58 57 59 57 56 56 56 56 58 60 58 59 58 58
80 79 78 77 77 76 73 71 70 71 69 68 67 66 66 67 65 58 56 57 58 63 62 58 55 55 54 54 55 57 56 55 55 54 55 55 57 63 61 58 59 58 57
77 75 74 73 72 72 72 71 70 68 67 67 66 66 65 66 64 59 58 58 58 60 58 57 56 56 55 57 56 54 54 54 54 55 59 55 55 55 55 54 53 53 51
73 72 71 70 66 61 55 60 67 62 66 69 67 66 65 64 64 60 59 60 60 60 57 58 57 56 54 54 55 57 54 56 55 57 60 54 54 54 53 53 52 51 49
69 69 67 68 65 63 60 57 48 47 47 49 53 61 58 54 53 50 50 52 54 53 57 58 55 56 55 55 55 55 58 60 59 59 58 54 53 52 51 52 51 49 48
68 67 67 66 66 65 65 62 57 53 47 45 46 51 53 48 47 46 45 47 50 53 58 58 58 58 58 58 57 60 59 57 59 56 54 52 52 52 52 50 50 50 49
69 61 70 69 69 67 66 63 61 59 57 55 47 48 45 44 44 44 45 51 55 55 56 57 57 57 57 56 55 55 54 54 53 52 52 52 51 50 50 50 50 48 49
71 70 72 70 70 69 69 67 65 64 61 56 49 48 44 43 44 45 46 55 57 57 57 57 60 57 55 55 54 53 53 53 52 52 51 50 51 49 50 50 49 51 50
66 68 70 72 71 72 71 70 67 66 61 57 55 53 49 48 51 52 54 56 57 57 57 58 57 55 55 54 53 53 52 52 51 50 50 50 49 50 50 50 50 49 50
65 67 70 71 70 70 69 69 72 68 64 61 60 57 52 56 55 55 55 56 57 58 57 56 55 55 55 54 53 53 52 52 50 50 50 49 49 50 50 49 50 51 50
69 67 69 68 68 68 70 70 68 69 67 64 63 58 50 57 59 59 58 58 59 63 64 59 56 56 55 53 52 52 51 51 49 49 49 49 49 50 49 50 50 50 49
67 71 66 65 69 66 67 65 63 66 64 61 59 56 56 58 60 60 61 60 62 62 62 61 57 56 54 52 53 53 51 49 48 48 48 48 48 48 48 49 49 48 48
67 67 65 63 61 62 63 63 60 61 64 64 63 61 59 60 61 60 61 61 61 62 62 62 60 57 55 53 50 48 48 48 47 48 48 47 47 47 48 48 48 50 50
66 64 63 61 60 60 60 60 63 61 65 65 65 63 61 60 59 59 62 62 59 59 62 61 57 57 56 52 50 47 42 42 45 44 45 46 46 47 48 48 49 49 50
62 63 62 62 62 64 63 62 63 62 63 64 63 61 60 60 59 58 57 58 58 60 60 56 58 58 57 53 50 43 36 39 42 40 43 43 44 45 47 49 50 49 49

GFSGL_sfc_temp_024.txt.gz
Temp
80 81 80 79 79 79 78 76 76 77 76 74 74 74 73 71 70 69 67 68 67 66 68 67 67 67 65 64 67 64 63 63 63 63 63 65 66 67 68 67 68 67 67
81 80 80 79 78 79 79 76 77 77 76 76 75 74 73 73 71 71 69 71 68 66 66 66 67 69 68 68 67 66 67 64 66 64 62 63 64 65 65 65 68 71 67
81 80 80 79 78 78 80 80 76 78 75 75 75 74 73 73 71 71 71 69 69 68 67 66 66 66 66 66 67 67 66 66 64 63 61 62 64 64 64 63 64 64 68
81 80 79 79 79 79 80 79 78 78 75 74 75 74 74 73 73 72 72 70 68 67 67 67 67 66 67 69 67 67 65 64 63 62 61 62 63 65 64 62 61 61 62
81 80 79 80 80 80 79 79 79 78 78 74 74 74 73 73 74 72 71 70 67 66 66 67 67 69 70 67 68 65 66 64 62 62 61 64 65 61 62 64 59 59 62
80 80 80 80 79 79 78 78 77 77 76 73 73 73 71 73 70 68 72 70 69 68 66 65 67 69 70 69 66 66 65 63 63 61 61 63 63 62 59 59 57 56 55
81 80 80 79 78 78 78 77 76 76 76 74 72 72 71 72 67 66 69 67 67 67 67 65 67 71 69 67 64 65 65 65 65 64 63 63 59 60 59 58 57 56 55
81 80 80 79 78 78 78 77 77 77 77 74 73 72 72 71 65 64 67 69 68 69 69 68 66 67 65 66 64 63 64 65 65 67 65 67 62 62 60 60 59 57 55
81 80 80 80 78 78 77 76 77 77 77 76 76 73 71 70 62 62 65 67 67 67 68 68 68 65 62 62 63 62 63 63 63 62 62 62 61 61 61 58 57 53 52
83 82 81 81 79 78 78 78 78 79 77 78 75 73 70 72 59 59 65 66 65 65 66 66 63 64 60 59 62 61 60 61 61 61 60 60 60 60 61 59 57 55 52
85 84 82 81 80 80 79 79 79 75 75 74 73 71 71 68 61 57 60 66 67 66 67 63 64 60 57 56 57 62 61 60 61 60 58 59 59 57 58 58 57 55 52
84 82 80 80 81 79 78 77 75 74 73 70 68 67 68 67 60 56 57 62 64 66 61 65 65 57 55 55 55 57 56 58 58 57 55 54 54 56 57 57 57 59 59
82 80 78 79 80 78 75 74 73 72 71 69 68 66 66 66 63 57 56 57 59 64 65 61 57 53 51 54 55 57 55 55 55 52 51 52 53 55 55 55 55 55 54
79 79 77 78 76 76 75 74 72 70 69 67 67 66 66 66 65 62 59 56 57 62 59 57 56 56 55 56 55 55 54 53 53 52 52 53 53 53 53 52 52 51 48
75 75 75 73 72 66 58 64 69 65 67 67 67 66 65 64 63 58 57 58 58 58 57 56 55 55 54 54 54 53 52 52 52 53 53 53 52 51 51 50 49 48 46
71 69 67 65 63 61 61 57 51 51 51 51 54 61 58 56 51 48 47 47 49 51 57 56 55 54 54 54 53 53 53 55 53 53 53 51 50 50 49 49 47 46 45
68 66 65 64 64 64 63 61 58 54 47 46 49 51 54 52 47 46 45 45 47 52 57 56 56 55 55 55 54 53 54 55 54 53 51 50 50 49 49 48 47 46 47
66 60 66 65 64 64 64 61 61 62 60 53 46 48 45 45 45 44 45 50 53 53 55 56 55 55 54 53 53 52 51 51 50 51 50 50 49 48 48 48 46 45 45
66 65 66 65 65 63 63 62 60 60 60 55 51 49 45 43 44 44 47 57 55 54 53 54 54 52 52 52 51 51 51 50 50 49 48 48 48 47 47 46 46 48 47
65 63 65 66 66 66 64 62 61 59 56 55 55 53 48 52 54 53 53 54 54 54 54 54 53 52 52 52 51 50 49 49 48 48 47 47 47 46 46 46 46 45 46
64 65 64 67 67 66 66 64 63 62 57 55 56 53 49 57 53 52 52 52 54 55 53 53 52 52 51 51 49 49 49 49 47 46 46 47 46 47 46 45 46 46 45
62 63 64 64 64 66 66 67 65 63 62 59 57 52 45 53 54 54 54 55 55 55 57 57 54 53 52 51 50 50 49 48 47 46 46 46 45 46 45 45 46 46 45
65 64 62 61 62 61 63 64 68 65 62 59 56 53 54 55 56 56 56 56 56 57 56 55 53 51 50 50 50 50 49 48 47 46 46 46 45 45 44 44 44 45 45
64 62 62 61 59 59 59 60 61 58 61 59 57 55 56 59 58 57 57 57 56 56 59 57 58 55 51 49 48 48 48 46 45 47 47 46 45 43 44 44 44 46 45
63 61 61 60 61 59 59 60 60 60 62 62 60 60 58 57 56 58 56 56 58 61 61 59 58 55 53 51 48 47 42 41 45 43 44 45 45 44 45 44 44 45 46
61 61 60 60 59 60 61 60 61 60 61 62 60 58 61 59 57 56 55 55 57 56 57 57 57 55 53 50 49 44 37 38 42 40 42 42 42 43 43 44 44 46 45

GFSGL_sfc_temp_027.txt.gz
Temp
79 79 79 78 78 77 76 74 75 72 72 73 73 72 71 70 69 68 66 66 65 65 65 65 65 64 63 66 63 61 61 61 60 63 65 66 65 65 67 67 68 65 65
81 80 79 79 78 77 77 74 75 74 73 73 73 72 72 71 70 69 68 69 65 64 65 65 65 67 64 64 65 63 63 62 65 64 65 65 65 64 64 64 67 70 68
81 80 79 78 77 77 78 78 74 76 74 74 73 72 72 71 70 70 70 68 67 66 65 64 65 65 63 63 63 62 62 63 63 62 63 64 65 64 66 65 64 64 68
81 80 78 78 78 77 79 78 75 76 74 74 74 74 73 72 72 71 70 68 66 67 66 66 65 65 64 64 64 63 62 62 63 62 61 61 63 65 64 63 64 63 64
80 79 79 79 79 78 78 78 78 75 75 75 73 73 73 73 73 72 71 69 66 67 67 68 66 67 68 66 65 63 63 62 61 61 61 62 63 62 62 63 61 58 59
79 78 79 79 79 78 77 77 76 75 76 73 73 73 72 73 69 68 72 70 68 68 66 65 66 69 68 67 67 66 65 63 60 59 60 60 61 62 61 60 59 57 55
79 79 79 78 77 77 77 76 75 75 75 72 73 73 71 72 66 66 68 69 67 66 65 67 67 70 67 66 65 65 65 65 65 62 60 62 61 61 60 57 56 55 55
78 78 79 78 77 77 76 76 75 75 74 74 72 72 72 71 65 63 67 68 66 67 68 67 68 68 67 65 63 62 63 64 63 65 65 65 62 63 60 59 58 56 55
78 78 78 78 77 77 75 76 76 75 75 74 72 71 71 70 62 61 64 68 67 67 68 68 68 67 63 62 64 62 61 61 62 61 61 61 60 60 60 57 56 54 52
79 79 80 79 78 77 77 77 77 77 76 76 73 72 69 72 60 59 64 68 66 66 66 66 63 65 59 59 63 61 61 61 60 61 60 59 59 59 61 58 57 54 51
82 81 80 80 79 78 78 78 76 75 75 75 74 74 72 71 65 57 60 67 67 66 66 65 65 58 55 55 58 62 60 61 61 59 58 57 56 56 56 55 55 54 51
82 81 79 79 79 79 77 77 75 74 74 74 73 72 72 68 58 56 57 61 63 65 66 65 62 56 53 53 55 57 55 59 57 56 54 53 52 53 55 55 54 54 54
81 81 80 79 79 79 76 74 73 73 74 73 71 70 67 65 61 56 56 59 59 64 62 61 58 53 51 53 54 54 54 56 54 54 52 51 52 54 53 53 54 53 52
78 79 79 77 77 79 77 75 73 73 73 71 69 67 67 65 64 61 62 60 57 61 58 57 57 56 56 55 55 55 55 55 53 52 51 51 52 51 51 50 50 49 47
76 78 78 78 75 72 59 68 73 72 71 70 69 68 66 65 64 60 59 60 59 58 58 59 57 55 55 54 53 53 52 52 52 50 51 51 51 50 50 49 48 46 45
70 70 70 67 63 62 63 59 50 56 56 56 55 61 63 57 52 49 48 48 49 50 59 58 57 55 55 54 53 52 51 54 51 51 51 51 50 49 48 47 46 45 44
65 65 63 63 64 65 65 64 61 55 52 51 51 52 52 55 49 46 45 45 47 52 58 57 56 54 54 53 53 52 53 53 52 52 51 49 49 48 48 47 46 44 45
64 60 66 66 66 66 65 64 64 64 63 59 47 48 46 46 44 43 43 48 54 55 56 55 55 55 54 54 53 53 52 51 50 49 48 48 47 48 47 46 45 43 43
65 65 67 65 65 63 64 63 63 64 64 55 52 48 45 42 43 44 47 60 57 54 54 54 54 53 52 51 50 50 49 48 48 48 47 47 46 46 45 45 44 47 45
64 62 63 64 62 61 62 63 62 60 58 58 58 54 50 53 56 55 54 55 54 54 53 53 51 50 50 51 50 49 48 48 47 47 46 45 45 45 45 45 44 44 43
64 64 62 64 63 62 62 62 60 59 59 59 58 55 51 61 57 56 53 54 55 53 52 51 51 51 50 50 49 48 48 47 46 46 45 44 44 45 44 44 44 44 43
63 63 64 63 63 63 62 62 61 60 61 58 55 49 45 54 55 54 53 54 53 53 54 55 53 53 53 51 49 48 48 47 45 45 44 44 44 44 44 44 44 43 43
61 61 61 61 61 60 61 61 61 62 60 58 54 51 51 53 53 54 54 54 53 53 52 52 53 51 50 50 49 49 48 48 47 45 44 44 43 43 43 43 43 43 43
61 60 59 59 60 61 61 60 59 55 58 56 56 54 55 56 55 55 54 54 53 53 53 53 57 57 54 49 48 48 48 47 45 46 46 45 44 42 42 42 43 43 43
63 60 59 59 59 56 57 57 58 59 59 59 58 55 55 57 56 55 54 54 54 54 56 56 57 57 55 53 49 48 43 40 44 42 43 44 44 43 42 42 43 43 44
59 59 59 59 57 57 57 58 57 59 58 59 58 57 58 55 54 55 54 53 54 55 57 55 53 53 55 53 50 45 37 38 42 39 42 42 41 40 41 43 44 44 43

GFSGL_sfc_temp_030.txt.gz
Temp
77 77 77 77 77 77 75 75 75 75 74 74 74 74 73 72 71 70 69 69 69 68 69 68 68 68 69 69 69 68 68 68 68 69 67 69 69 72 73 73 74 73 74
78 77 77 77 77 77 75 76 75 74 74 74 74 74 73 73 72 71 70 71 69 68 69 68 68 69 68 68 69 67 68 68 69 67 68 67 68 68 69 69 72 76 74
79 78 78 77 76 76 76 76 75 74 73 74 74 73 72 72 71 71 71 70 70 70 69 69 69 69 68 68 68 68 69 67 67 68 69 67 70 71 69 67 71 71 71
81 78 77 77 77 77 77 77 75 75 73 73 74 74 73 73 72 72 72 71 70 71 70 70 70 69 69 68 68 67 66 66 66 66 66 66 69 69 67 64 66 67 66
79 79 78 78 78 77 76 76 76 75 75 74 74 74 74 74 74 72 72 71 70 70 71 71 70 69 69 68 69 66 66 66 65 65 65 66 67 66 64 65 62 62 67
78 78 78 77 77 76 76 76 75 75 75 74 74 74 73 75 70 68 72 72 71 70 69 69 70 69 68 66 67 67 67 66 65 65 64 64 66 67 64 63 61 65 64
77 77 77 77 76 76 76 75 74 74 75 74 74 74 73 74 65 66 69 72 70 69 69 69 69 69 68 70 65 65 65 65 67 67 65 65 67 67 66 64 63 63 64
77 77 77 76 76 76 76 75 75 75 74 74 74 74 73 73 63 64 67 72 70 70 69 69 70 69 68 69 69 68 67 68 67 68 69 70 69 68 67 66 65 63 64
77 76 77 77 76 76 75 75 76 75 75 75 75 73 72 73 62 62 65 70 69 68 69 70 69 68 64 63 67 67 67 66 63 61 62 61 61 61 64 64 62 60 62
77 77 78 77 76 76 76 76 77 77 76 76 75 74 70 73 61 59 65 71 67 67 68 68 64 68 60 59 68 66 65 65 66 65 67 63 62 64 60 65 66 63 61
79 79 78 78 77 77 76 77 77 76 76 74 74 73 73 72 69 57 59 70 69 68 67 66 67 59 56 55 60 68 66 65 64 65 64 65 65 65 65 65 64 64 61
77 77 77 77 78 79 76 76 76 74 74 74 73 72 72 73 63 57 57 64 65 68 67 69 67 56 53 53 57 57 55 60 62 63 64 64 63 64 65 64 63 63 65
74 75 76 77 78 78 76 74 73 74 75 74 72 72 72 72 65 55 56 58 60 67 67 64 57 52 51 53 55 54 55 63 63 63 63 63 63 65 63 62 61 61 60
73 72 74 74 75 77 78 77 76 74 74 73 72 72 72 67 65 60 61 62 60 61 59 59 58 57 58 59 57 56 62 63 63 63 63 63 62 62 62 62 62 61 61
70 71 72 74 74 75 69 70 74 76 74 74 73 73 69 65 62 59 59 63 63 60 59 60 60 61 60 60 60 60 60 61 61 61 61 61 61 61 61 60 60 59 59
68 69 68 69 67 63 64 61 51 54 53 53 55 62 64 57 52 51 52 48 49 52 61 61 61 60 60 60 59 58 59 59 60 60 61 61 61 61 60 58 58 58 58
65 65 65 64 65 65 65 64 61 54 50 51 51 54 56 57 51 50 46 46 50 53 62 61 62 61 61 61 60 60 60 60 59 60 60 61 61 60 58 58 58 57 57
65 56 65 65 66 66 67 65 64 63 63 61 52 54 51 52 48 45 44 48 54 58 63 62 62 61 61 61 60 60 60 59 59 60 60 60 59 59 58 57 56 56 57
63 64 67 67 66 64 65 64 63 63 62 61 57 51 47 44 43 43 48 62 60 60 60 61 63 62 62 61 61 60 60 60 59 58 59 58 58 58 58 58 58 51 52
63 60 62 64 63 62 62 62 61 61 58 58 58 56 51 52 54 57 60 61 61 62 62 62 61 61 60 60 58 58 57 56 57 58 58 58 58 58 59 58 58 58 57
65 64 61 64 62 62 62 61 60 61 60 60 60 56 51 61 60 60 60 60 61 62 61 60 59 59 59 58 58 58 59 59 59 59 58 57 56 57 57 58 58 58 58
64 65 65 63 63 63 62 61 61 61 60 57 55 52 49 63 62 61 61 61 62 62 63 60 60 61 62 61 60 61 61 60 58 58 58 57 56 57 57 58 58 58 58
63 64 63 63 62 59 61 61 60 60 60 59 57 56 60 60 61 61 60 61 61 61 60 61 61 61 62 62 62 63 62 60 60 58 57 56 56 57 57 57 58 58 58
63 63 62 61 61 62 61 60 59 54 57 58 57 57 58 58 61 61 62 61 62 61 61 61 63 64 60 61 61 61 61 61 59 58 57 57 57 52 56 56 57 57 59
65 62 61 60 61 61 61 60 59 59 59 58 58 57 58 60 61 61 61 61 62 61 61 62 63 61 60 59 61 61 52 42 54 49 57 57 56 54 56 57 57 57 57
62 62 60 59 58 59 60 60 59 59 58 58 57 56 56 56 57 56 58 61 62 62 62 62 61 59 57 60 60 51 37 38 47 41 55 56 55 55 55 56 56 58 57

GFSGL_sfc_temp_033.txt.gz
Temp
83 83 82 83 83 83 83 83 83 84 83 84 83 83 83 82 82 79 80 80 78 78 79 78 77 79 82 82 82 82 81 80 78 81 83 81 78 80 82 83 83 82 84
84 82 82 83 83 83 83 83 83 82 83 84 83 83 83 83 82 80 79 81 78 78 78 77 77 80 77 78 80 77 80 79 80 75 80 80 77 79 79 79 82 85 81
85 85 83 83 83 82 82 83 83 83 83 84 83 82 82 83 81 80 80 80 79 79 79 78 78 78 76 80 78 79 80 79 78 79 79 81 80 81 79 78 78 79 79
88 86 83 83 83 84 83 83 83 82 82 82 83 83 83 83 82 82 81 80 80 80 80 79 79 78 77 76 76 76 77 78 77 77 78 79 79 79 78 77 78 76 79
85 85 84 83 84 83 83 82 83 83 83 83 82 83 83 83 85 81 81 80 79 79 79 80 80 78 74 75 78 76 76 76 77 77 76 77 77 77 75 80 76 77 75
83 83 83 83 82 82 82 82 81 81 82 82 82 82 82 84 74 70 78 82 80 79 79 79 80 73 71 68 68 70 75 74 74 77 77 76 74 76 78 77 76 71 74
82 83 83 82 81 81 82 81 80 80 82 80 81 82 81 82 67 67 69 83 81 80 80 79 79 80 73 77 67 66 67 67 71 76 74 75 74 76 75 72 73 73 74
82 82 82 81 80 81 81 80 80 81 81 81 80 81 81 82 65 65 68 80 81 81 80 80 79 78 76 76 77 75 75 75 74 79 78 77 77 77 75 75 72 72 74
82 82 82 80 79 81 80 80 81 81 81 81 82 81 80 81 63 63 67 79 81 79 80 80 79 78 71 64 74 76 76 76 67 65 66 64 64 64 70 76 71 72 72
83 83 83 82 81 81 81 80 81 81 81 84 83 82 77 81 62 60 67 83 80 80 79 78 66 76 63 60 72 76 74 76 75 73 73 66 65 66 61 72 75 73 74
86 85 84 83 81 81 81 81 82 80 81 79 80 82 81 79 78 59 60 80 83 79 80 78 79 61 56 56 62 76 75 77 71 75 77 77 74 73 75 73 74 75 73
85 84 83 82 83 84 80 79 80 80 79 78 78 79 80 80 66 58 57 62 72 80 78 79 73 56 55 54 59 62 57 65 78 77 76 74 75 75 75 75 73 73 75
83 82 82 82 82 83 80 78 79 80 81 79 80 79 80 76 77 59 57 58 60 74 75 68 59 53 54 55 57 56 58 77 76 75 74 75 76 77 74 71 71 70 70
81 81 82 81 81 82 82 76 79 82 81 82 81 78 79 74 72 63 62 60 58 64 60 61 60 59 60 62 60 59 73 77 76 76 76 76 74 72 72 73 72 72 72
81 81 81 83 80 82 83 83 84 84 83 83 83 83 78 68 63 59 60 64 62 58 62 62 62 62 62 63 65 67 72 73 73 75 73 72 72 72 71 72 72 71 69
78 81 83 85 84 84 78 70 53 52 55 56 57 72 72 57 51 49 48 50 52 53 62 61 61 62 63 65 67 67 69 69 74 73 73 72 71 70 71 71 71 70 69
76 71 70 72 78 73 71 71 69 62 49 49 50 51 54 53 50 50 49 51 51 56 63 62 62 63 64 67 67 69 70 73 71 72 72 71 71 71 68 70 69 69 68
73 58 69 69 70 69 69 69 68 67 64 58 50 53 49 48 48 49 48 52 56 61 63 63 64 66 68 68 71 71 73 71 71 71 71 72 71 71 69 69 69 68 68
73 71 70 66 64 63 64 64 64 64 65 61 58 53 49 46 44 45 47 64 61 63 64 65 66 70 71 72 71 73 72 71 71 71 71 72 71 71 69 70 69 57 59
72 61 65 66 65 63 64 62 62 61 61 61 61 59 53 54 56 57 63 63 63 63 64 66 69 72 74 73 72 71 71 68 69 70 71 71 71 72 71 69 69 68 66
68 72 64 75 74 72 68 64 64 61 60 61 60 58 49 60 59 60 63 63 63 64 66 70 70 72 72 70 70 69 71 72 71 72 71 70 70 70 70 70 70 70 70
68 67 72 70 68 67 71 68 66 64 63 59 57 53 47 61 61 63 64 65 68 69 72 72 73 72 72 70 70 72 73 72 72 71 70 71 69 69 69 69 69 69 69
74 70 67 69 72 64 71 69 67 64 63 60 59 59 59 63 64 64 66 70 70 72 74 74 74 73 73 73 75 76 75 74 73 72 71 69 69 69 69 69 68 68 67
74 74 71 68 67 67 66 65 62 56 61 60 60 62 64 65 67 69 70 72 71 73 73 73 75 75 73 74 75 77 77 75 74 72 71 70 69 64 69 68 68 67 67
76 75 72 69 68 65 65 69 67 65 64 62 63 63 65 65 68 70 70 72 73 72 72 74 74 74 73 75 76 75 55 47 67 58 70 69 68 66 68 68 67 67 67
72 71 67 63 64 65 63 62 62 64 63 61 60 59 62 64 68 68 70 72 73 73 73 74 75 75 75 73 73 54 37 39 55 45 68 68 67 67 67 66 65 67 66

GFSGL_sfc_temp_036.txt.gz
Temp
90 90 89 89 89 88 89 89 89 90 91 90 89 89 89 89 88 86 87 88 84 84 85 85 82 85 89 90 90 89 88 87 84 88 90 88 83 84 87 87 88 87 88
92 89 89 89 89 89 88 89 89 88 90 89 90 88 89 89 88 86 85 88 85 83 84 83 83 86 82 84 88 84 86 87 85 80 86 86 81 84 84 82 86 91 89
93 91 90 89 89 89 88 89 89 88 89 90 89 88 88 89 88 87 86 86 86 85 85 84 83 83 81 86 84 86 86 85 84 84 84 87 87 86 83 82 83 84 86
97 93 91 89 90 90 89 88 89 88 88 89 89 89 89 89 89 88 87 86 86 86 86 86 85 84 82 81 83 81 84 84 83 83 84 85 84 85 84 84 83 84 84
95 94 92 90 90 90 89 88 89 88 88 89 88 89 90 91 92 88 88 87 86 86 86 86 86 83 77 79 85 82 82 81 85 83 83 84 84 84 81 84 83 84 81
94 93 92 89 88 88 88 87 87 87 87 88 88 88 88 92 79 74 84 89 88 86 85 85 86 77 76 70 70 71 80 80 79 84 84 82 80 82 83 82 82 80 77
91 91 90 89 87 87 88 87 86 85 87 86 87 88 87 88 71 70 72 90 89 87 86 86 86 89 78 82 70 68 69 69 72 81 79 81 81 81 81 78 77 78 77
89 89 89 88 87 87 86 85 85 86 86 86 86 86 87 88 69 67 70 86 88 88 87 86 85 86 84 82 82 79 77 78 78 83 82 82 82 82 80 79 78 75 79
89 88 89 89 87 87 85 85 86 86 86 86 87 86 86 87 66 64 69 85 86 86 88 87 86 85 75 67 81 80 77 77 70 67 67 67 68 69 74 82 78 74 76
90 89 89 89 88 86 86 85 86 86 86 89 88 88 81 86 66 62 69 88 85 88 86 86 70 81 66 63 78 80 77 77 79 78 77 70 69 71 64 76 81 77 76
92 91 90 89 87 87 86 86 86 86 87 85 87 88 87 84 84 59 61 84 91 89 91 89 88 64 59 58 65 76 75 77 74 77 76 79 79 79 79 77 79 81 79
91 90 89 88 89 90 86 86 85 85 83 84 82 82 88 86 71 60 59 67 77 89 89 92 88 59 57 55 61 63 58 63 72 71 73 77 76 80 81 81 78 79 82
89 88 88 87 87 88 85 84 86 84 86 84 86 85 86 91 89 63 57 59 64 79 91 82 65 54 54 55 57 58 59 68 69 72 73 78 79 82 81 78 77 76 76
86 86 87 86 85 87 90 89 88 88 87 87 85 81 87 91 92 91 73 66 61 68 63 68 63 61 60 61 60 61 67 67 69 74 75 78 79 81 78 79 77 76 77
87 88 87 90 86 87 88 90 90 90 88 88 89 88 90 91 91 75 64 65 67 64 61 63 62 62 62 62 63 64 67 71 73 77 77 78 78 77 77 79 78 78 76
87 89 91 93 92 90 90 88 57 56 51 48 49 64 92 63 53 52 51 50 51 53 63 63 63 63 63 63 63 63 65 66 73 76 77 76 77 76 76 77 77 77 75
83 82 87 80 93 92 90 90 89 72 50 48 46 48 54 54 49 48 47 49 50 55 64 63 63 63 64 64 65 64 63 67 73 75 76 77 78 77 74 76 76 76 74
77 60 83 76 75 76 74 73 74 73 73 78 55 47 46 46 47 47 48 52 56 59 66 65 64 65 67 67 68 66 68 74 76 77 77 78 78 76 75 76 76 74 74
82 79 76 79 77 71 69 66 64 63 62 61 59 53 52 46 47 46 46 63 63 65 68 69 69 72 71 71 72 75 76 77 78 77 78 77 78 78 77 77 77 61 64
77 63 70 79 79 75 77 72 68 64 62 62 61 59 58 58 59 60 60 59 62 65 72 75 76 75 75 73 74 77 78 77 76 77 76 78 79 79 78 77 77 74 71
82 81 65 82 83 82 82 79 77 72 64 64 65 61 50 62 59 60 61 61 62 64 68 75 78 77 72 74 75 77 78 77 78 78 79 78 78 77 78 78 77 76 76
77 82 84 82 82 81 80 80 81 81 78 74 69 58 46 66 61 61 62 63 64 66 67 69 72 71 75 77 77 77 76 78 79 79 79 79 78 77 77 77 76 76 75
84 81 80 78 77 66 77 78 74 69 68 70 66 70 68 64 63 63 63 64 64 65 66 67 71 76 80 78 79 80 80 80 79 80 78 78 77 77 77 75 75 75 74
84 83 80 75 72 79 77 73 70 58 61 61 63 65 65 63 63 63 63 67 73 75 77 78 79 78 77 79 80 83 82 83 82 79 79 78 77 71 76 75 76 75 74
81 79 78 77 77 77 78 78 76 72 69 64 63 64 66 68 69 74 75 75 76 76 77 78 80 78 79 79 81 82 55 54 73 64 78 77 75 74 75 75 75 74 73
77 74 73 69 69 68 68 70 70 71 72 74 74 73 73 73 73 75 78 79 79 79 80 81 81 80 80 81 80 52 40 43 63 50 74 76 75 74 74 73 72 73 72

GFSGL_sfc_temp_039.txt.gz
Temp
91 91 90 90 90 90 91 91 91 92 93 91 91 91 90 90 90 88 88 90 86 85 87 87 84 85 90 92 91 91 89 89 84 89 92 88 86 85 87 87 87 87 87
93 91 90 91 91 90 89 91 91 90 91 91 92 90 90 90 90 88 87 90 88 85 85 85 86 87 83 85 90 86 87 88 86 81 86 87 83 84 84 84 86 91 90
95 94 93 91 91 90 90 90 90 90 90 93 90 89 89 90 89 89 88 87 89 87 87 85 85 85 83 85 84 87 87 86 86 83 84 88 88 86 84 83 82 83 87
100 96 93 92 92 92 91 89 90 90 89 89 90 90 90 90 90 90 89 88 87 89 88 87 86 85 83 83 84 82 84 86 84 84 84 86 87 87 85 83 76 82 84
99 98 95 92 92 92 90 90 90 90 90 90 89 90 90 91 93 89 89 88 87 87 88 88 88 85 78 80 85 82 81 83 86 84 83 84 85 79 75 77 78 78 80
98 97 95 93 91 90 90 89 89 88 89 89 89 89 89 93 81 75 84 89 88 87 86 87 88 79 78 72 72 73 80 81 79 84 85 82 81 84 85 84 80 75 77
95 96 94 92 90 89 90 89 87 87 88 87 88 89 88 89 73 71 73 91 89 87 86 87 88 91 80 84 71 71 70 69 74 80 78 80 80 84 83 80 79 78 76
94 93 93 92 91 89 88 88 87 88 87 87 87 88 88 89 72 68 71 87 88 88 87 87 86 87 86 84 83 80 80 80 78 83 81 80 83 84 83 80 78 77 79
93 92 92 93 91 89 87 87 88 88 87 87 89 87 87 88 69 66 69 87 87 86 89 88 87 86 78 70 82 81 78 78 73 67 67 68 69 72 73 80 78 74 75
93 93 92 92 90 89 88 87 88 88 88 91 89 89 82 87 71 64 69 90 86 88 87 86 72 84 70 64 80 81 77 76 77 74 71 67 68 72 67 76 80 77 74
98 96 93 91 90 89 88 88 87 87 88 87 87 88 88 86 86 62 61 83 89 89 90 89 91 67 63 60 69 82 78 79 73 75 71 71 73 77 77 75 77 79 76
97 94 92 90 92 93 87 87 87 86 85 85 85 87 91 89 73 63 60 66 76 89 90 93 91 63 59 57 64 68 60 68 76 73 71 70 73 74 78 77 76 78 81
93 91 91 90 90 90 87 86 87 86 88 86 89 88 90 93 91 63 58 60 65 82 91 81 62 57 57 59 59 59 60 72 71 69 68 68 73 73 72 74 77 77 75
90 90 90 89 88 89 92 90 89 90 89 88 90 89 91 92 93 93 80 72 61 69 74 82 73 67 65 71 62 64 70 71 69 68 68 68 70 69 71 75 75 74 74
89 89 89 91 88 89 89 92 91 91 87 93 92 93 92 92 92 78 83 89 83 75 74 68 66 67 65 64 66 67 68 68 67 68 68 67 67 68 69 74 76 75 73
88 91 92 94 93 91 91 89 57 60 50 48 49 66 83 62 53 51 50 53 55 54 68 66 65 65 64 64 64 65 67 67 67 68 69 68 66 68 69 75 75 76 75
90 89 93 87 97 93 92 92 92 67 48 47 48 47 46 46 49 47 48 50 50 54 68 67 67 66 64 64 65 65 66 66 69 70 67 66 65 69 74 71 73 76 76
81 61 88 89 89 85 84 84 86 84 82 82 56 51 44 44 43 43 43 49 57 60 68 67 66 66 65 65 66 66 67 67 68 69 66 66 66 71 70 74 74 75 76
85 85 87 86 84 77 79 79 79 76 72 72 74 61 54 43 42 43 45 62 61 62 64 63 64 64 65 66 66 66 69 69 69 70 69 70 70 72 73 76 78 66 70
80 66 75 85 83 83 80 79 76 75 74 75 75 72 68 64 68 61 64 63 63 63 64 64 68 65 66 65 66 66 70 69 68 68 70 73 77 79 78 78 79 76 74
87 84 72 87 86 86 85 82 78 77 78 77 79 69 48 73 66 64 66 65 66 65 65 66 67 66 65 66 67 68 71 71 71 71 75 77 78 79 79 80 79 79 77
88 88 88 87 86 84 83 85 85 83 80 77 75 72 48 74 77 76 73 71 70 66 66 67 67 66 67 67 68 69 73 74 75 77 76 78 78 80 79 79 78 78 77
87 84 81 80 81 71 80 80 78 76 73 69 71 74 75 72 70 68 66 72 73 72 68 66 66 66 66 66 68 74 77 77 77 77 77 77 79 78 78 77 78 77 77
73 74 77 80 80 84 81 77 72 61 65 65 67 68 69 69 70 67 67 69 69 68 69 66 66 66 68 72 78 81 81 82 82 81 81 80 79 73 78 77 78 77 77
79 73 74 74 76 75 77 75 75 77 75 71 71 70 69 71 73 76 72 73 74 70 73 71 72 76 77 78 80 80 51 52 76 68 81 80 78 77 77 78 77 77 76
69 69 71 71 69 68 67 64 63 66 68 67 65 65 69 70 71 72 76 81 81 81 80 81 78 77 78 80 75 49 42 49 65 50 77 79 77 77 76 75 75 77 75

GFSGL_sfc_temp_045.txt.gz
Temp
81 81 81 80 80 81 78 79 79 79 79 78 79 80 80 80 79 78 77 76 75 75 75 73 73 72 71 72 72 72 71 70 67 69 71 72 71 71 72 72 74 71 70
82 81 81 81 81 80 81 77 81 79 82 79 80 80 80 80 80 78 77 80 75 74 74 73 73 77 71 71 71 71 72 71 70 68 69 70 71 70 71 71 75 79 72
83 82 81 81 81 80 81 82 79 82 81 82 79 80 80 80 79 79 79 79 77 76 76 75 75 74 73 75 69 71 70 72 70 68 68 69 70 70 69 71 71 71 74
84 82 81 81 82 82 82 82 82 82 82 82 82 80 81 81 81 81 80 79 79 78 77 78 78 75 75 75 71 72 71 69 69 68 68 68 69 70 71 70 67 69 71
85 84 83 83 83 83 83 82 82 82 82 82 83 83 81 82 83 81 81 80 80 79 79 78 79 79 75 75 77 74 73 70 68 71 66 67 68 66 70 68 70 70 68
88 84 85 84 84 83 83 82 82 81 82 82 82 82 82 84 76 73 80 81 81 80 78 79 80 75 75 71 72 74 76 75 74 72 75 72 74 71 70 71 72 64 63
88 87 86 85 83 83 83 82 82 82 82 82 82 82 81 83 71 70 72 83 82 81 80 80 80 82 75 77 70 70 71 71 75 78 74 74 76 76 72 69 73 70 64
88 86 87 84 83 83 83 82 83 83 82 82 82 82 82 83 70 67 70 82 83 82 82 81 80 80 80 78 77 75 75 75 74 77 78 79 74 77 76 77 73 68 67
86 84 86 84 83 83 82 83 84 84 83 83 83 82 82 82 67 66 68 80 82 82 82 82 81 80 75 68 77 75 74 76 72 68 71 71 68 69 72 72 67 66 62
85 83 82 85 84 83 83 84 84 84 84 84 83 83 78 82 68 63 66 81 80 82 83 83 70 78 69 64 76 77 74 75 76 73 70 67 67 71 69 76 68 65 63
83 81 82 83 83 84 84 84 84 83 83 82 82 84 83 81 80 62 61 80 82 82 82 82 83 65 62 60 64 80 78 79 74 75 75 75 69 68 69 70 72 71 64
81 79 78 78 83 82 80 82 82 82 81 81 80 81 83 83 68 63 59 62 74 80 81 84 83 64 59 59 60 68 65 66 79 74 74 71 68 68 68 69 70 70 69
79 78 78 80 81 80 78 78 79 80 81 79 80 79 80 82 81 62 59 59 61 73 83 79 69 62 58 60 60 62 61 71 76 75 73 71 70 70 69 68 69 69 67
78 77 76 77 76 77 78 80 81 80 79 79 78 77 79 77 79 82 74 65 61 64 69 73 70 68 67 69 64 62 66 72 74 73 75 74 71 68 67 67 66 66 65
77 77 77 76 77 76 73 66 77 81 77 77 78 77 76 77 73 59 62 71 71 67 69 72 73 74 73 74 68 67 66 67 70 72 72 72 70 67 67 67 67 66 64
76 77 76 76 75 76 72 62 50 50 50 50 50 66 62 52 47 47 47 49 51 52 64 69 71 73 73 74 73 73 68 67 69 70 71 72 70 67 67 66 67 65 64
72 75 76 74 76 76 78 75 63 55 47 46 47 47 49 47 46 46 45 46 47 52 68 69 70 70 71 70 70 70 69 70 70 69 70 71 71 69 66 67 65 64 63
73 66 73 74 73 75 75 75 71 64 63 58 50 50 45 44 43 44 46 50 63 62 65 64 64 66 68 68 68 68 68 68 69 68 66 66 65 64 64 64 64 63 63
75 73 70 70 69 69 68 68 71 70 68 64 59 52 47 45 45 46 49 62 62 62 63 63 64 64 64 64 64 65 65 65 65 64 63 63 64 64 62 62 63 58 60
72 68 66 68 67 68 66 66 65 65 64 64 62 61 60 58 59 59 60 60 60 60 60 61 62 63 63 62 62 62 63 62 62 62 62 63 63 64 63 63 62 61 62
71 70 69 71 69 68 67 65 65 65 64 63 60 56 48 61 59 59 59 60 61 61 61 62 62 62 61 62 62 61 62 62 62 63 64 63 63 62 63 62 62 63 61
71 71 71 70 71 69 68 67 66 65 65 62 59 58 47 65 62 61 61 62 62 63 63 63 63 63 63 63 64 64 63 64 64 64 64 64 63 63 63 63 66 65 65
73 71 72 71 70 66 66 66 64 64 64 64 64 65 65 65 65 64 63 63 63 64 65 64 63 63 62 62 63 63 63 63 63 64 63 63 62 62 63 66 66 66 64
70 70 68 69 67 66 64 64 61 57 62 61 61 61 61 64 64 62 63 63 64 65 65 64 64 64 63 62 63 63 64 64 64 64 64 63 63 61 65 65 65 66 65
63 62 63 64 63 61 60 60 61 61 60 59 58 58 58 58 58 58 57 58 59 57 58 62 64 63 63 63 64 67 57 50 62 59 67 67 66 65 65 65 64 61 59
56 58 61 61 60 60 58 57 56 57 55 56 55 54 54 54 54 53 52 53 55 55 54 53 52 55 60 64 62 50 42 45 58 52 66 66 65 64 65 65 64 61 60

GFSGL_sfc_temp_048.txt.gz
Temp
80 80 80 79 79 76 77 77 78 76 75 75 78 78 78 78 77 75 75 74 74 74 73 72 72 71 70 69 69 68 67 66 66 68 67 69 68 69 71 70 71 71 70
80 80 79 79 79 78 77 77 78 78 77 75 76 76 77 78 78 77 76 78 74 73 74 73 73 75 70 69 69 69 68 67 67 66 66 67 69 68 70 69 72 77 73
80 79 79 78 78 77 78 79 78 78 79 76 75 76 77 78 78 78 78 77 75 75 75 74 75 73 73 71 67 71 68 69 67 66 67 66 67 66 66 67 68 70 73
80 79 78 78 78 78 78 79 79 78 78 78 77 77 77 78 79 79 79 77 77 77 76 75 76 74 75 73 70 70 69 68 66 65 64 66 66 68 67 70 66 66 69
80 79 78 79 80 79 78 78 79 79 78 80 80 77 78 79 80 79 79 78 78 77 76 76 76 76 74 74 76 74 69 70 65 64 64 64 65 65 68 67 70 73 70
80 79 80 79 79 79 79 78 78 78 79 79 79 80 77 80 74 72 78 79 79 78 77 76 77 74 73 70 70 73 74 72 72 71 72 71 74 73 67 72 71 63 64
81 81 80 80 79 79 80 79 78 78 79 79 79 80 80 80 69 69 71 81 79 78 78 78 78 80 73 76 69 69 70 70 74 77 74 75 74 76 72 68 70 70 69
83 81 81 80 80 80 79 79 79 80 79 79 79 80 79 81 68 66 69 79 81 80 79 79 79 79 78 75 76 73 73 75 73 75 79 79 80 79 77 77 75 73 66
83 83 82 82 80 80 79 79 81 80 80 80 80 80 80 80 66 64 67 76 79 80 81 80 80 79 74 67 75 75 74 75 72 67 70 70 69 68 73 75 66 64 63
84 84 84 83 82 80 80 81 82 82 81 82 81 81 76 80 66 63 66 78 77 79 81 81 70 76 67 63 73 76 74 76 76 76 69 70 67 71 67 77 75 67 66
83 84 83 84 82 83 82 82 82 81 82 81 80 82 81 79 79 61 61 79 79 79 79 80 82 65 62 60 62 78 77 79 76 76 76 74 74 72 72 72 78 75 70
79 77 77 80 83 83 81 81 81 81 80 79 79 79 81 81 67 61 59 62 73 79 80 82 81 64 59 59 60 65 64 64 77 77 75 75 74 74 70 69 71 71 69
76 75 75 76 77 78 78 79 78 79 80 78 79 78 79 80 78 61 59 59 61 72 81 77 68 61 58 60 59 61 60 70 73 73 73 75 75 78 73 69 70 71 70
73 74 73 73 72 74 79 79 79 78 78 78 77 77 78 76 76 76 70 65 61 63 67 72 70 65 62 67 65 62 66 69 71 72 73 77 78 73 69 68 67 68 66
73 73 73 73 71 72 63 64 74 74 75 77 77 76 75 75 76 68 69 71 70 67 68 70 71 72 73 73 73 68 67 66 67 69 70 71 72 72 70 68 67 67 66
70 71 73 73 72 69 62 59 49 48 47 50 57 67 59 53 49 49 48 48 50 53 65 67 69 70 70 72 73 73 69 67 68 68 69 70 70 71 70 69 67 66 65
69 69 70 70 73 72 66 64 60 55 49 46 45 47 50 50 46 47 47 48 49 53 66 66 67 67 68 69 71 71 71 69 68 68 68 69 69 69 68 69 68 66 65
69 64 69 70 72 73 73 68 63 62 60 57 51 49 45 44 44 46 47 53 62 61 63 62 63 65 66 67 66 66 68 68 68 67 64 64 64 64 63 63 63 62 62
69 69 68 67 66 67 69 69 66 65 64 60 55 52 47 44 45 47 48 61 62 61 62 61 61 61 61 61 61 61 62 64 64 64 63 62 63 61 62 62 60 57 59
68 67 65 69 67 66 66 66 67 65 63 62 62 61 58 55 58 57 58 58 58 58 58 58 59 59 59 59 60 60 61 62 62 63 62 62 62 62 61 62 62 61 61
66 67 66 68 68 68 67 66 66 65 63 61 62 58 50 59 58 58 58 58 59 59 59 60 60 60 60 60 60 61 62 61 61 62 61 63 63 63 62 61 62 60 59
67 66 66 65 64 64 65 65 64 63 62 60 59 54 45 60 59 59 59 60 60 61 61 60 60 61 61 61 63 63 62 62 63 62 62 63 62 62 62 62 62 61 60
67 67 67 65 64 61 62 62 61 61 60 59 60 60 62 61 57 59 59 58 59 61 62 62 62 61 62 61 61 62 61 62 63 64 63 62 61 61 60 59 61 61 59
65 67 66 65 64 62 60 59 58 54 57 57 57 58 58 57 54 56 56 55 55 56 54 56 57 59 62 62 62 62 62 62 62 63 63 61 60 57 59 58 59 59 58
59 60 62 62 61 59 58 57 57 56 56 55 54 54 54 54 53 53 52 53 53 52 51 52 51 49 49 53 51 51 46 38 53 55 62 62 61 61 60 61 62 63 62
53 54 55 56 55 56 55 54 53 53 52 51 50 49 50 50 50 50 50 50 50 50 49 49 49 47 45 47 44 39 34 35 48 44 64 64 64 62 63 62 62 62 62

GFSGL_sfc_temp_051.txt.gz
Temp
78 78 78 77 77 77 75 74 74 72 73 73 73 74 74 75 75 74 73 73 73 72 72 71 70 70 69 67 66 66 65 64 63 66 65 66 66 68 71 72 72 69 70
79 79 78 77 77 76 76 75 75 73 71 73 73 74 75 76 75 75 74 75 73 72 73 72 72 73 69 68 67 66 65 64 64 64 65 66 66 66 70 69 71 73 72
80 79 78 77 76 75 76 76 76 75 73 73 73 74 75 75 75 75 76 75 74 75 74 73 74 72 71 70 68 67 66 67 64 64 66 65 65 64 64 65 66 68 71
80 79 77 77 77 77 77 77 76 76 75 74 75 76 76 76 76 76 76 76 75 75 75 74 75 73 73 73 70 69 68 65 63 63 63 66 65 66 64 64 63 64 70
79 78 77 77 78 77 77 76 77 76 77 77 76 75 76 77 78 76 76 76 75 75 75 75 75 76 74 74 75 74 70 69 68 65 65 62 63 63 63 65 71 72 69
78 77 78 77 77 76 76 76 75 76 76 77 76 77 75 78 72 70 76 77 77 76 75 74 76 73 72 70 70 72 74 72 71 69 72 71 72 69 75 73 69 61 65
78 78 78 77 76 76 76 75 75 75 76 75 76 77 76 77 68 68 70 79 77 77 77 77 76 78 73 75 69 68 69 68 73 76 72 74 73 77 75 69 73 71 72
78 78 78 77 76 77 76 76 75 76 75 75 76 76 76 78 67 66 68 77 79 78 78 78 78 78 77 75 75 74 71 73 71 73 77 78 78 79 76 77 74 73 69
78 78 78 78 77 77 76 76 77 77 76 76 77 76 77 77 65 64 66 75 77 78 79 79 78 78 73 66 74 74 74 74 70 66 68 70 69 68 73 76 73 67 65
80 79 79 79 78 77 77 77 79 78 78 79 78 78 74 78 66 62 65 77 75 76 78 79 69 75 66 63 72 74 73 75 76 75 72 68 66 71 66 69 71 66 65
81 80 79 80 80 80 79 79 79 78 79 78 78 79 79 76 77 61 60 77 78 77 77 78 79 65 61 60 61 77 76 77 76 77 78 77 77 75 73 70 68 68 66
77 78 77 79 80 81 79 79 79 78 77 77 76 77 78 79 66 61 59 61 72 78 78 79 79 63 59 59 61 65 62 64 76 74 75 76 76 76 75 73 71 69 70
72 73 73 78 81 82 79 79 77 78 78 76 76 76 77 77 77 61 59 59 61 72 80 76 66 59 57 58 58 60 59 68 70 72 72 73 76 78 79 75 72 71 70
72 72 72 71 71 73 76 78 78 77 77 77 76 76 76 74 75 75 67 65 61 64 67 71 68 64 63 66 65 63 65 68 69 70 72 74 74 74 74 72 70 68 67
71 71 72 72 70 70 65 64 73 75 73 77 77 76 74 73 74 69 70 73 72 68 68 70 71 72 72 73 73 71 68 67 67 68 69 70 70 71 71 72 70 68 67
68 68 68 69 71 69 63 58 49 47 46 47 52 66 66 56 55 54 52 53 53 54 67 69 70 70 70 70 69 70 69 68 69 68 68 68 68 68 69 70 70 68 67
66 67 67 65 70 67 64 63 61 54 47 44 44 49 53 53 46 45 45 47 48 55 68 66 66 66 66 66 67 69 70 70 69 67 67 67 66 64 64 63 64 64 62
67 60 66 67 68 70 67 65 62 61 62 59 50 46 44 44 45 44 45 53 62 61 64 64 65 65 65 66 64 63 63 63 63 64 64 64 63 63 61 62 62 61 60
66 66 66 66 65 66 71 64 63 61 61 59 58 54 48 44 44 45 46 64 63 62 63 62 60 59 59 59 59 59 60 62 62 64 64 63 62 58 59 59 59 55 57
66 63 63 65 64 64 67 66 65 62 61 61 61 60 58 59 60 60 60 60 59 58 57 57 58 58 58 58 58 58 60 62 62 62 63 62 60 60 59 60 60 61 60
65 65 64 65 65 64 64 65 65 63 63 62 62 59 51 61 60 60 58 57 58 58 58 58 59 59 59 59 59 62 62 63 59 59 59 59 61 62 62 61 61 61 60
64 65 64 64 63 62 61 63 63 63 62 61 59 55 48 61 60 59 57 58 59 59 60 59 59 59 59 60 61 61 62 61 61 61 61 63 63 62 62 62 61 60 58
63 64 63 61 61 58 60 60 59 59 59 59 60 59 58 56 56 56 55 55 56 54 56 58 59 59 61 61 61 60 61 60 61 63 63 63 62 62 62 61 61 61 59
62 63 62 61 61 61 60 59 57 54 57 57 56 54 53 52 53 53 52 51 50 51 51 50 50 48 50 52 54 54 56 53 56 61 63 62 60 57 61 60 60 59 57
58 59 60 61 60 59 58 58 57 56 54 54 52 52 52 52 51 51 49 49 49 48 48 48 46 46 48 48 46 45 40 35 42 44 60 61 61 59 58 58 56 56 55
52 53 52 52 51 51 51 50 49 49 49 49 48 48 48 48 48 49 49 50 50 49 48 48 47 45 42 42 40 37 34 36 40 36 56 61 60 59 59 58 59 59 59

GFSGL_sfc_temp_054.txt.gz
Temp
76 76 76 76 76 75 74 74 73 73 73 74 74 75 76 76 76 75 76 76 75 75 75 74 74 74 75 74 73 72 71 70 70 72 72 74 74 74 75 76 76 75 75
77 76 76 76 76 75 74 74 74 73 73 74 75 75 76 76 76 76 76 77 76 75 76 75 75 76 74 74 74 71 71 70 70 69 71 73 72 74 74 73 75 78 76
78 77 77 76 75 75 75 75 74 74 74 74 75 75 75 76 76 76 76 76 76 76 77 76 76 76 75 75 74 73 73 72 70 70 72 72 73 74 72 71 72 73 76
79 78 76 76 76 76 76 76 74 74 74 74 74 75 76 76 77 77 76 76 76 77 77 77 77 76 76 76 76 74 74 73 71 71 72 72 72 73 72 73 72 72 74
78 77 76 76 76 76 75 76 76 75 75 75 74 75 76 77 78 76 77 76 76 76 77 77 78 77 74 75 78 76 75 73 73 70 71 72 72 72 72 77 72 76 73
77 76 77 76 76 75 75 74 74 75 75 75 75 75 75 78 72 70 76 77 77 76 76 76 77 74 73 69 69 71 76 74 73 74 74 74 73 74 76 74 72 72 72
76 76 76 75 75 75 75 74 73 73 75 74 75 75 75 76 68 68 70 79 78 77 77 77 78 79 74 77 70 68 68 68 72 77 73 74 74 76 75 73 72 73 74
75 75 75 75 74 75 74 74 74 74 74 74 75 75 75 76 67 66 68 76 78 78 78 78 78 78 77 76 77 76 75 75 73 75 76 78 79 79 77 76 74 73 74
75 75 76 76 75 75 74 74 75 75 75 75 75 75 75 76 65 64 66 76 77 77 79 79 78 78 72 66 76 76 76 77 71 66 67 68 67 67 70 78 74 68 69
76 76 77 77 76 75 75 75 76 76 76 77 76 76 72 76 65 62 65 77 76 77 78 78 68 75 66 63 74 76 75 76 78 78 76 70 67 71 65 69 70 68 67
78 78 77 77 76 77 76 77 76 76 77 76 76 77 77 75 76 61 60 76 77 77 77 78 80 64 61 60 61 77 76 78 77 77 79 79 78 77 75 72 70 69 69
76 76 76 77 79 79 76 76 77 76 75 75 76 76 78 78 66 62 59 60 71 78 78 80 79 63 58 58 60 64 62 63 74 74 75 76 76 78 79 78 75 73 72
74 74 74 76 77 78 76 76 76 76 76 76 76 76 77 79 79 61 59 59 60 71 80 75 65 59 57 59 58 59 58 68 69 70 71 74 76 78 77 76 76 72 72
72 73 74 74 74 76 78 79 77 77 76 77 76 76 77 77 77 77 71 66 60 64 66 71 68 65 63 67 67 64 65 67 68 70 71 74 74 73 72 73 72 72 69
72 73 73 73 72 73 73 71 77 78 74 78 78 78 75 75 76 70 70 74 73 69 69 72 71 72 72 74 74 73 72 69 68 69 69 70 70 70 70 73 71 71 69
70 71 69 71 73 71 66 62 49 49 47 47 49 62 75 60 57 54 52 52 53 54 68 71 71 71 71 72 73 73 73 69 70 70 69 69 69 69 69 69 69 68 67
68 69 70 68 71 69 68 66 65 57 46 44 44 49 51 59 52 50 48 48 49 53 72 71 70 71 72 71 71 72 71 70 71 70 69 68 68 68 65 66 67 67 66
69 57 69 69 70 71 70 68 68 67 66 66 48 48 44 45 44 43 44 52 64 62 68 68 69 68 68 69 69 68 68 68 67 68 68 68 68 65 66 66 66 66 65
68 69 69 69 69 66 71 69 69 68 68 66 60 52 47 43 43 44 45 66 67 66 65 65 64 66 66 66 66 65 65 64 64 65 67 67 66 65 66 66 66 56 58
67 63 63 69 69 69 69 68 66 66 65 65 64 63 59 60 63 63 63 63 63 63 63 64 64 64 65 65 64 64 63 63 64 64 64 65 66 65 65 64 66 64 65
63 68 63 69 69 70 69 68 67 64 64 64 65 61 50 64 62 62 61 61 62 62 63 64 64 65 65 65 64 63 64 65 64 65 65 66 66 65 66 65 65 66 63
60 64 68 69 68 67 67 67 66 65 64 63 60 56 50 63 61 60 58 59 60 60 60 63 64 63 63 63 63 64 64 64 65 66 66 67 66 66 67 65 63 62 63
60 63 67 67 67 60 64 65 65 65 64 64 61 58 58 59 59 57 55 55 54 54 54 53 52 53 52 54 54 56 60 61 63 65 65 66 66 67 65 64 63 63 63
59 63 67 66 65 65 64 62 61 56 60 59 57 56 56 57 55 54 53 52 52 52 51 49 49 49 49 50 53 54 56 54 54 60 65 66 66 61 65 65 65 64 63
57 60 62 62 62 60 59 59 57 56 55 54 52 53 54 54 53 52 51 51 51 51 51 51 49 48 49 49 49 49 41 35 46 44 58 66 69 66 65 65 64 67 62
51 51 50 49 49 49 48 48 47 48 48 48 48 48 49 48 49 49 50 50 50 49 49 49 49 48 47 47 43 37 33 35 44 36 59 65 66 67 68 67 67 68 67

GFSGL_sfc_temp_057.txt.gz
Temp
82 82 82 83 83 82 82 82 83 83 83 83 84 84 85 85 85 83 83 85 83 83 84 83 82 83 86 87 86 85 84 83 81 87 86 87 83 84 88 86 86 85 87
84 82 82 82 83 82 82 82 83 82 83 83 84 84 84 85 85 83 83 86 83 83 84 83 83 86 82 83 85 82 83 83 82 78 84 86 83 86 85 84 86 91 89
85 84 83 83 82 82 82 83 82 82 83 84 83 83 84 85 84 84 84 84 84 84 85 84 84 84 82 85 84 85 86 83 82 80 82 87 85 86 85 83 82 85 88
87 85 83 83 83 83 83 82 82 82 82 83 83 83 84 85 85 85 84 84 84 85 85 86 85 85 83 83 84 83 83 83 84 82 82 84 86 86 84 82 84 88 87
84 85 83 83 83 83 82 82 82 82 83 83 83 83 84 85 88 85 85 85 84 84 85 85 86 83 77 79 86 85 84 83 84 84 83 84 85 85 82 86 85 86 86
83 83 83 82 82 81 81 81 81 81 82 82 82 82 83 86 76 71 80 86 85 84 83 85 85 78 77 70 70 71 80 82 80 83 85 84 82 83 86 85 85 83 82
82 83 82 81 80 80 81 81 80 81 81 80 81 82 82 83 69 68 70 86 86 85 84 84 86 89 79 84 73 68 68 68 71 81 81 82 82 84 83 81 81 81 81
81 81 82 81 80 81 80 80 80 81 81 81 81 82 82 83 68 66 68 81 84 85 85 85 84 85 86 84 85 85 85 85 81 81 81 82 84 85 84 84 82 80 80
81 81 81 82 81 81 80 80 81 80 80 81 82 81 81 82 65 64 67 82 83 83 85 86 85 84 76 67 81 82 84 85 79 68 69 68 66 66 71 80 75 72 70
82 82 82 82 81 80 80 80 81 82 82 84 82 82 77 82 66 62 66 83 82 83 84 83 70 78 68 63 79 81 81 83 85 86 86 75 68 75 66 73 76 70 70
85 84 82 82 81 82 81 82 81 81 83 81 82 83 82 80 80 60 59 80 84 85 85 86 88 65 61 60 61 82 81 82 81 84 82 82 82 82 84 85 75 71 70
84 83 82 82 84 84 81 81 81 81 80 80 80 82 85 83 67 63 59 61 73 83 84 88 86 63 58 57 62 65 62 64 80 80 80 77 78 79 82 81 78 74 72
82 82 81 82 82 84 81 80 81 81 83 82 83 84 85 87 86 61 58 58 60 76 86 80 67 59 57 61 58 60 59 69 70 71 72 74 78 82 77 75 76 76 77
80 81 82 81 81 83 84 84 84 84 82 84 84 85 87 87 87 88 80 73 61 67 69 78 75 67 64 70 73 67 73 75 71 72 73 73 76 74 74 74 73 77 79
81 82 81 83 81 82 84 84 84 86 82 85 86 87 86 86 87 77 78 86 83 76 74 79 76 75 75 76 75 74 74 71 69 69 70 71 72 72 72 76 76 79 78
79 81 77 84 79 85 84 76 50 51 49 49 50 67 86 65 57 54 53 53 54 55 72 75 75 75 74 75 74 74 74 71 74 76 76 73 71 71 73 76 79 77 71
75 73 71 71 80 76 78 80 79 64 47 46 45 48 50 54 54 50 48 48 50 54 73 74 74 74 74 74 74 76 76 77 77 75 76 76 74 73 74 77 76 73 76
73 59 71 71 80 81 77 75 78 80 80 79 51 49 46 46 48 47 46 53 66 60 72 74 74 74 73 73 73 74 78 79 79 79 78 76 76 76 76 76 75 75 73
73 79 79 81 81 78 80 79 82 81 81 82 71 57 50 42 42 43 45 71 74 72 70 68 69 70 71 72 76 78 77 77 75 75 75 75 75 72 74 76 76 60 62
71 64 67 79 82 83 82 78 74 74 76 79 80 79 63 61 70 68 70 69 70 68 67 67 68 69 72 76 76 76 73 72 73 70 70 69 70 72 75 75 75 71 70
68 71 65 79 82 83 83 80 77 73 71 73 79 73 52 76 76 74 73 73 68 67 67 69 71 73 75 72 70 72 73 74 73 71 68 69 73 73 74 72 72 72 73
65 67 73 77 80 80 81 82 80 76 75 73 66 63 49 73 76 72 67 65 64 62 64 69 68 64 63 65 66 68 68 69 69 68 68 71 72 72 72 72 73 70 70
63 63 71 75 78 70 77 80 79 78 74 74 69 68 70 67 68 66 62 62 61 61 60 61 62 60 56 55 55 58 61 64 64 66 67 70 71 72 74 74 74 72 72
62 62 69 75 77 78 79 77 76 63 73 72 70 70 70 68 62 62 64 63 61 59 58 56 55 55 56 56 59 61 61 64 66 71 72 71 70 67 71 73 74 73 72
56 55 54 57 62 66 65 66 65 63 61 60 59 60 60 60 58 58 58 57 56 55 55 55 55 55 55 58 60 59 43 34 47 45 68 73 74 73 71 72 72 70 70
49 48 48 47 46 46 47 47 47 50 50 51 51 51 52 51 52 53 55 56 54 53 56 59 59 59 59 58 52 38 33 34 50 35 62 74 74 73 74 72 72 71 69

GFSGL_sfc_temp_060.txt.gz
Temp
89 89 89 89 89 88 88 88 88 89 90 88 89 89 90 90 90 88 88 90 88 88 89 88 87 88 92 94 94 93 92 91 87 92 96 97 90 88 91 94 93 92 94
91 89 88 89 89 89 87 88 88 87 89 88 89 88 89 90 90 88 88 91 88 88 88 88 88 91 86 87 92 88 91 91 89 83 89 92 90 92 90 87 91 97 97
91 90 90 89 89 89 88 88 88 87 87 90 89 88 88 90 89 89 89 89 89 89 89 89 89 89 86 90 90 91 92 90 89 87 87 93 94 95 92 90 89 90 93
94 92 90 89 90 90 89 88 88 88 87 88 89 89 89 90 90 90 90 89 89 90 90 90 90 89 88 88 88 87 88 88 90 89 90 91 93 93 94 92 90 94 95
94 92 91 90 90 90 89 88 88 88 88 88 88 89 89 91 94 90 90 90 89 89 90 91 91 88 80 82 91 89 89 89 90 90 91 92 93 93 91 95 92 93 93
93 92 91 88 88 88 88 87 87 87 87 87 88 88 88 93 79 73 83 90 90 88 88 90 90 82 80 72 71 71 77 85 85 88 90 88 86 89 92 92 92 90 87
90 90 90 88 86 86 87 86 86 86 87 86 87 88 88 89 72 70 72 90 91 90 89 89 91 96 84 91 75 69 70 68 70 82 83 85 85 88 88 86 86 87 86
89 88 88 87 86 86 86 86 85 86 86 86 86 87 87 89 69 67 69 86 88 89 90 90 89 90 90 90 91 90 90 90 85 84 83 84 85 87 87 85 84 83 85
88 87 88 88 86 86 85 85 86 86 86 86 87 86 86 87 67 65 69 86 87 87 89 90 90 89 79 69 87 86 87 89 84 70 71 71 69 68 73 84 78 79 78
88 88 88 88 87 86 86 85 86 86 87 90 89 88 81 87 68 63 69 88 88 89 88 88 73 81 70 65 84 85 84 86 89 90 90 78 68 75 66 77 83 79 79
90 90 89 88 87 87 86 86 86 86 88 86 87 88 88 85 85 61 59 85 90 91 92 94 95 67 64 63 61 85 83 84 83 87 88 90 88 89 90 86 84 83 74
90 89 88 87 89 89 86 85 86 85 84 85 84 87 91 88 69 62 59 62 76 89 91 96 94 63 59 59 64 67 62 66 86 83 85 86 88 90 88 85 84 78 75
88 87 86 86 86 89 85 84 86 85 88 86 88 88 91 95 91 63 58 58 61 79 91 84 64 59 56 61 57 60 59 83 85 84 81 82 80 82 80 77 77 78 79
86 85 86 85 85 88 90 89 89 90 88 91 91 92 94 95 95 96 86 75 62 70 72 82 79 70 63 71 75 75 83 86 86 78 75 78 81 76 74 76 76 79 86
86 87 87 89 86 87 89 90 92 93 87 93 94 95 94 94 95 83 84 94 91 81 81 87 87 86 83 82 83 85 86 83 79 80 75 73 73 75 78 79 77 84 84
86 88 89 91 89 91 90 86 51 54 51 52 53 68 95 69 60 57 57 56 54 55 81 88 85 79 78 80 81 80 79 75 76 75 74 76 77 78 78 82 85 84 82
79 82 85 85 89 88 86 87 85 70 49 47 49 50 51 54 52 51 48 48 51 58 83 86 85 86 85 82 81 82 80 78 78 76 79 79 78 79 81 83 84 84 81
71 60 77 81 86 79 76 79 83 83 81 88 54 55 48 47 48 48 48 54 74 64 76 77 78 79 78 77 80 79 79 79 77 79 81 81 83 83 83 83 83 81 81
76 73 77 86 85 80 81 74 77 77 82 82 84 61 53 42 44 44 45 80 83 82 79 77 76 74 76 78 78 77 78 79 82 85 84 84 84 83 81 83 83 65 67
78 65 68 75 72 77 78 78 80 79 78 82 89 89 76 65 72 70 68 71 74 81 84 79 77 75 80 75 77 79 81 81 82 81 82 82 82 82 82 83 83 79 70
79 81 67 85 88 86 86 81 85 82 79 80 84 79 54 85 82 77 75 78 80 81 80 82 82 81 81 82 83 83 84 84 84 83 82 79 80 81 79 79 76 76 74
77 79 82 86 89 89 89 90 89 88 88 87 87 76 51 85 87 85 82 79 74 74 72 74 77 74 71 73 76 79 81 81 82 81 77 76 77 75 76 74 75 75 74
76 74 77 82 84 77 85 87 90 90 89 88 89 83 81 83 80 77 74 76 73 72 70 71 71 75 73 74 75 76 75 73 75 75 73 73 73 74 74 73 74 74 74
66 70 69 75 80 83 87 86 87 71 78 84 85 83 82 80 78 73 72 71 66 66 65 65 67 68 70 72 73 71 67 63 67 77 75 73 72 70 75 74 78 76 76
57 57 55 54 57 62 68 67 66 66 63 63 67 71 72 72 72 72 71 69 66 62 61 62 61 61 61 61 62 62 46 34 48 46 69 77 79 75 73 77 78 77 76
47 47 47 46 45 45 45 45 45 47 47 48 49 52 54 56 59 60 59 58 59 60 59 59 59 60 59 56 50 40 33 34 48 35 61 73 76 77 74 74 75 74 75

GFSGL_sfc_temp_063.txt.gz
Temp
90 89 89 89 89 89 90 91 90 92 92 91 91 91 91 90 91 89 89 91 88 87 90 91 89 89 92 96 95 94 93 92 87 92 96 98 94 90 92 93 92 93 93
91 89 89 90 90 90 89 90 91 89 91 91 90 90 90 91 91 89 88 91 89 89 89 89 89 92 87 88 91 90 91 92 90 83 88 92 89 91 90 89 92 95 94
92 92 91 91 90 90 89 90 90 89 89 91 90 89 89 90 90 91 90 89 90 90 90 90 89 89 88 90 90 91 93 92 90 88 88 93 94 95 92 91 90 90 94
95 94 91 90 91 91 91 89 90 89 89 89 90 90 90 90 91 91 91 90 90 91 91 91 91 90 89 88 89 88 89 88 89 90 91 92 94 94 95 93 93 97 96
95 95 92 91 91 91 90 90 90 90 89 89 89 90 91 92 94 90 91 91 89 89 91 91 91 89 81 83 91 88 87 89 90 90 91 92 93 94 91 94 92 94 94
94 94 93 90 89 89 89 89 88 88 89 88 89 89 89 93 80 75 85 91 90 89 89 90 91 82 81 74 72 72 77 83 84 88 90 88 85 88 93 92 91 88 85
94 93 92 90 88 88 89 88 87 87 89 87 88 89 88 90 73 71 73 92 91 90 89 89 91 96 84 91 75 72 72 70 71 81 81 83 83 85 86 84 84 85 85
92 93 91 90 88 88 88 87 87 88 87 87 87 88 88 90 72 67 70 89 89 89 91 90 89 90 91 90 92 91 89 88 84 83 82 83 85 86 85 85 84 83 85
92 91 92 91 89 88 87 87 88 88 87 88 89 88 87 88 68 66 70 88 88 87 89 90 90 90 80 71 87 86 87 88 85 70 71 71 70 69 74 82 79 80 81
93 92 92 91 90 88 87 87 88 89 89 91 90 90 82 88 69 64 70 90 88 90 88 87 73 82 71 66 84 86 84 86 89 89 91 83 69 76 67 78 84 79 82
94 94 92 91 89 89 88 88 88 88 89 87 89 90 89 87 86 62 61 86 91 92 92 94 95 69 65 64 64 85 84 84 84 88 88 88 90 89 89 86 84 82 78
93 92 90 89 92 92 87 87 87 87 85 86 86 89 92 91 72 62 60 64 77 89 91 98 95 67 61 62 65 68 64 66 85 86 86 85 87 86 90 88 85 83 83
91 89 89 89 89 90 87 86 87 86 89 87 89 89 92 95 92 64 59 59 63 80 91 83 64 60 57 60 57 61 60 83 84 84 85 88 92 92 86 84 82 81 79
88 88 89 88 87 89 91 90 89 90 89 92 91 92 93 96 98 97 83 73 62 70 74 83 80 71 62 71 78 71 82 86 86 87 88 90 89 85 81 79 75 78 80
88 89 89 89 87 88 90 92 92 93 89 93 95 96 96 96 97 86 87 90 87 80 80 86 87 87 87 88 89 87 87 88 82 87 87 87 80 77 76 80 77 81 82
83 88 91 92 89 90 91 86 53 60 52 53 52 69 85 60 56 53 53 55 58 58 81 87 88 89 89 90 88 86 85 80 85 83 81 80 78 78 79 77 79 83 84
79 83 92 88 93 92 92 90 87 67 52 50 52 52 52 51 53 51 52 51 53 61 88 89 89 91 89 86 83 80 79 81 83 82 81 80 80 78 78 78 84 85 84
71 63 82 86 89 93 91 91 93 89 87 88 59 56 49 48 50 49 50 55 79 76 88 89 90 91 91 89 84 83 82 82 81 82 81 81 81 82 83 84 85 84 83
67 69 69 77 81 84 84 82 85 90 88 83 73 59 52 44 47 47 47 82 86 90 89 87 83 83 82 86 84 79 82 82 81 81 80 82 82 85 85 85 85 64 71
67 64 66 77 77 78 82 83 85 85 82 82 76 75 66 68 73 78 74 79 83 84 82 84 85 85 84 81 78 81 82 79 79 82 84 85 86 86 85 85 85 84 82
67 70 68 76 73 78 80 76 77 81 89 80 80 67 58 80 86 82 79 78 80 77 77 81 75 77 76 75 81 83 83 83 83 84 84 85 84 83 83 84 84 85 83
74 71 73 74 75 81 82 79 75 76 83 86 82 69 55 83 82 81 82 78 81 82 84 84 86 85 83 81 80 83 83 83 83 84 83 83 81 82 83 79 81 78 76
69 71 76 79 79 72 83 89 90 89 88 91 92 89 84 74 74 74 75 79 80 79 79 82 83 81 80 81 81 81 80 81 81 78 76 75 74 76 74 73 74 75 75
58 57 61 65 66 73 75 75 85 71 77 76 79 86 81 77 72 70 70 70 71 73 74 74 74 74 74 77 78 79 67 64 65 70 74 75 75 71 73 72 72 76 75
53 52 51 49 56 55 57 60 63 62 64 65 67 66 67 70 74 73 73 71 70 70 68 68 68 67 64 61 61 60 43 35 48 44 63 72 76 74 72 73 77 76 75
46 46 46 46 45 45 45 44 44 45 47 49 49 49 52 56 59 62 62 60 61 60 59 61 61 61 60 58 53 40 34 35 47 34 55 69 73 77 73 70 70 69 69

GFSGL_sfc_temp_066.txt.gz
Temp
85 84 84 83 84 83 84 84 84 85 87 87 88 86 85 85 86 84 83 83 82 81 83 83 81 82 82 83 83 82 81 81 76 79 82 83 83 84 84 84 84 83 82
85 84 84 84 83 84 82 85 85 85 86 87 86 86 85 85 85 84 83 85 83 82 82 83 83 87 82 82 82 81 81 83 80 76 79 80 81 82 82 81 85 90 85
87 86 86 85 84 84 83 85 85 84 85 87 86 84 85 85 84 84 84 84 84 84 84 83 83 83 82 82 82 81 81 82 80 78 78 81 81 83 82 82 82 82 86
90 88 85 85 85 85 84 83 85 85 84 85 85 85 85 85 85 85 85 84 84 85 85 85 84 83 82 82 82 81 82 81 80 79 79 80 81 82 81 80 79 82 82
90 88 86 86 86 85 84 84 84 84 85 85 84 85 85 86 89 84 84 84 83 84 85 85 85 84 79 80 85 82 81 81 81 81 80 80 79 79 78 80 79 80 83
89 88 87 85 84 85 84 84 83 83 84 84 84 84 84 89 78 74 81 85 84 83 82 83 85 78 79 74 72 72 76 79 78 79 79 78 77 79 80 80 80 80 77
88 88 86 85 84 83 84 83 83 82 84 83 83 84 83 85 73 71 74 86 84 83 83 83 85 91 80 85 75 72 72 71 72 79 77 77 77 79 79 78 78 78 78
87 87 86 86 84 84 83 83 82 84 83 83 83 83 84 85 72 68 71 83 84 83 84 83 83 83 83 83 84 83 81 81 79 79 77 79 80 81 80 81 79 79 81
88 87 87 87 85 84 83 83 83 83 83 83 84 83 83 84 69 68 69 80 83 82 83 83 83 83 77 72 80 80 80 81 79 68 71 71 71 70 74 80 79 78 76
89 89 89 87 86 84 83 83 84 84 84 86 85 85 80 83 70 65 69 85 82 83 82 82 72 79 71 65 78 80 79 81 82 83 83 79 70 73 66 72 77 74 77
91 91 89 88 86 85 84 84 84 84 85 83 84 85 85 83 83 63 61 82 85 84 84 85 86 68 64 63 63 81 80 81 80 81 82 83 84 84 85 83 80 77 76
89 89 89 87 90 90 84 84 84 83 82 82 82 84 87 86 71 63 60 65 75 84 84 87 85 68 62 62 64 67 65 64 80 80 80 80 81 83 85 82 83 80 80
87 86 87 87 87 87 85 83 84 83 84 83 84 83 86 88 87 65 60 60 63 78 85 79 63 60 58 57 59 62 60 74 78 78 79 80 82 85 83 82 81 79 78
85 85 86 86 85 86 88 87 85 85 84 85 84 85 85 87 89 88 75 68 62 69 72 78 74 71 63 69 73 65 74 79 80 80 81 83 84 82 80 80 77 77 75
86 87 86 88 84 85 86 86 86 87 85 85 87 87 87 86 88 80 80 82 80 74 76 80 80 80 80 81 82 83 80 80 79 81 81 81 81 79 76 77 76 76 74
81 86 87 88 87 86 85 80 53 58 53 58 60 76 73 56 50 50 49 62 63 58 76 80 79 80 81 82 82 83 83 79 82 81 80 79 78 75 76 76 77 75 74
73 74 85 83 87 85 84 84 79 65 50 49 49 53 58 55 50 50 52 52 53 59 77 75 81 83 83 84 85 83 82 82 80 78 79 76 75 76 75 74 75 75 76
69 61 75 74 85 85 86 85 87 81 78 75 54 57 51 52 51 49 53 58 71 67 75 78 79 82 84 82 83 83 80 80 79 78 78 78 77 75 74 75 76 76 76
64 66 66 70 71 72 83 88 87 87 85 79 68 56 51 47 50 49 52 78 80 75 74 78 81 82 80 80 80 80 79 80 79 79 79 76 75 75 75 75 77 67 68
61 63 63 67 71 71 72 74 73 73 72 74 74 75 70 65 72 72 69 71 76 77 78 78 80 79 80 80 78 80 79 78 78 78 77 75 76 77 76 78 78 77 75
60 64 64 69 69 70 71 72 69 71 73 77 79 73 57 74 76 74 72 72 73 76 76 78 78 78 75 76 78 77 79 78 79 78 76 76 77 78 77 77 77 78 77
61 62 63 63 64 65 67 70 72 72 73 75 78 70 55 70 78 76 74 73 72 70 71 73 73 73 76 76 78 78 79 78 79 78 78 78 77 77 77 76 76 75 74
57 57 60 58 58 57 60 62 62 64 73 72 71 76 72 69 69 67 67 67 67 67 67 65 65 70 70 73 74 68 66 64 65 68 72 74 74 73 73 72 72 71 70
52 51 52 56 54 54 54 54 55 52 55 62 66 65 64 64 64 64 65 63 62 63 65 62 59 58 57 59 59 60 53 51 56 65 66 68 72 68 70 70 71 71 69
49 47 45 44 46 48 48 47 47 49 50 52 53 58 59 63 61 59 59 57 58 57 57 56 58 57 53 52 50 48 39 35 47 41 62 66 67 70 72 72 72 72 72
45 45 44 43 42 42 42 42 42 42 43 44 46 48 49 50 53 55 57 57 56 53 51 50 50 52 51 50 45 38 34 36 42 36 52 62 65 67 65 67 70 70 70

GFSGL_sfc_temp_069.txt.gz
Temp
80 80 80 79 79 75 77 77 77 79 78 80 79 78 78 78 78 76 76 76 75 75 75 75 76 76 74 75 76 74 73 72 71 73 75 76 77 78 80 78 79 79 78
80 81 80 80 79 80 75 75 77 77 77 79 81 81 79 78 78 77 77 79 76 76 76 75 76 80 75 75 75 75 74 75 73 71 72 75 76 78 78 78 82 86 82
82 80 80 80 79 79 80 75 78 77 79 79 79 79 79 78 77 77 77 77 77 77 77 76 76 76 75 75 74 74 74 76 73 71 71 74 76 76 77 77 77 78 82
82 81 80 80 80 80 81 81 77 81 77 77 78 78 78 78 78 78 77 77 77 77 78 78 78 77 76 76 76 75 75 74 73 72 72 72 73 79 75 75 74 75 76
83 82 81 81 82 81 81 79 81 80 82 80 76 77 79 80 82 77 78 78 78 77 77 78 78 78 76 76 78 75 75 73 73 73 72 72 72 73 71 73 72 72 78
85 82 83 82 82 81 80 80 79 80 79 81 81 80 78 83 76 73 78 79 77 79 78 77 78 77 76 73 72 73 76 75 73 72 72 71 71 71 72 71 74 73 70
86 84 83 82 81 81 81 80 79 79 81 79 79 80 79 81 71 71 73 82 80 78 79 79 79 85 76 78 73 71 71 70 72 79 75 75 75 76 74 72 73 73 74
83 84 83 82 81 81 81 80 80 80 80 81 80 80 80 81 70 69 71 80 81 81 78 79 79 80 78 77 79 79 77 78 77 75 74 79 79 78 75 78 76 75 76
78 83 83 83 81 81 80 81 81 81 80 81 81 80 79 80 68 67 68 74 79 79 80 80 79 79 73 69 75 74 74 75 75 68 69 70 70 69 72 73 73 72 73
77 82 83 83 82 81 81 82 82 82 82 81 81 82 77 80 68 65 67 80 76 78 78 75 69 75 68 67 77 79 76 77 75 76 74 70 66 71 67 71 75 70 70
79 81 83 84 83 82 82 83 83 82 82 81 81 82 81 79 80 63 62 80 81 79 79 79 81 66 62 61 63 78 76 79 74 73 74 75 75 76 77 73 72 72 72
71 78 81 83 85 83 82 82 82 82 80 80 80 80 82 82 69 64 61 63 74 81 80 82 82 67 61 61 63 65 64 64 71 72 71 72 72 75 80 76 77 76 76
68 73 76 83 84 86 82 81 80 81 80 80 79 79 80 83 83 64 60 60 62 77 83 78 69 63 59 59 60 62 61 68 73 70 74 75 75 79 77 77 76 76 75
66 71 79 80 82 85 84 83 82 81 80 80 80 80 81 82 83 84 70 65 62 65 71 73 66 68 68 69 67 61 65 70 72 74 74 75 76 74 76 76 73 73 72
64 70 79 84 79 83 84 82 83 84 81 82 82 82 81 80 82 77 75 76 75 70 72 77 73 72 75 72 71 72 67 70 72 73 73 73 74 74 73 73 72 71 71
61 69 77 84 80 82 82 72 53 55 57 58 63 76 73 62 63 63 57 58 59 57 69 74 73 74 73 73 73 74 74 72 74 74 74 74 73 74 73 73 72 72 70
59 63 68 71 77 79 79 80 71 61 52 48 50 59 58 60 49 49 50 52 51 59 71 73 73 74 75 75 76 76 76 76 77 75 75 75 73 73 72 71 72 72 70
59 59 64 69 72 73 77 77 77 70 69 68 53 53 50 50 50 51 50 55 62 65 73 72 72 72 73 75 76 75 75 74 75 74 74 74 73 72 71 71 71 71 70
57 59 62 65 70 68 74 77 76 73 72 69 61 57 50 46 46 47 50 71 71 71 72 71 72 73 73 74 74 74 74 73 73 74 74 73 73 71 71 71 72 64 67
57 59 61 65 68 69 70 70 73 73 73 67 67 66 62 60 65 66 65 67 70 72 73 73 72 71 69 66 69 73 72 71 71 71 72 72 71 71 70 72 70 68 66
57 59 59 60 63 63 64 67 68 68 69 69 69 66 57 67 68 67 65 68 69 70 69 72 72 70 71 72 72 72 72 71 71 71 70 70 70 69 68 68 68 68 66
54 55 57 56 57 60 60 60 64 66 67 67 68 60 54 67 67 70 68 66 64 62 61 65 59 61 60 60 62 63 61 62 62 64 66 66 67 66 66 66 65 64 64
50 52 51 52 53 54 56 56 55 57 59 64 67 66 63 61 62 61 60 60 59 56 55 54 53 51 52 52 52 52 52 52 54 60 62 64 66 67 66 64 64 63 63
47 46 48 46 48 48 48 50 51 50 51 51 54 56 57 58 58 57 55 54 52 52 53 49 47 47 48 47 47 50 47 44 50 57 58 60 61 58 62 63 63 65 66
45 44 43 43 43 43 43 43 44 45 46 48 46 46 47 47 49 51 48 47 47 45 45 46 46 46 44 44 42 42 38 36 46 39 52 56 59 60 63 63 62 64 65
44 43 42 42 41 41 41 40 40 40 41 41 41 42 43 42 41 42 44 47 46 44 44 44 43 44 43 42 40 36 34 37 42 41 53 57 56 60 61 62 64 63 62

GFSGL_sfc_temp_072.txt.gz
Temp
78 79 78 78 76 72 74 76 75 75 77 77 78 78 77 75 75 73 73 73 73 72 73 73 73 73 72 71 72 72 70 69 68 71 71 73 75 76 77 76 77 77 78
79 79 78 78 78 75 72 74 75 75 75 76 78 78 78 77 75 74 73 76 73 73 74 73 73 77 73 72 72 72 71 71 70 69 69 71 73 76 76 75 80 83 79
79 79 78 78 78 78 78 73 74 75 74 75 77 78 77 77 76 76 76 74 74 74 74 74 74 74 73 72 72 72 72 73 71 69 70 71 73 74 74 74 75 76 79
80 79 78 78 79 79 80 78 72 76 75 75 76 78 79 79 78 77 76 74 74 75 75 75 75 74 73 74 73 73 73 72 71 70 70 70 70 73 72 71 73 71 73
80 79 79 79 79 79 79 79 77 75 78 77 77 77 77 79 80 78 77 76 74 73 74 75 75 76 74 74 76 73 73 72 71 71 70 70 71 70 70 71 70 75 73
80 79 79 79 79 78 78 79 78 77 77 76 75 78 77 81 74 71 76 75 75 74 75 74 75 75 74 71 70 71 74 73 72 71 71 72 72 70 70 70 69 68 68
78 80 80 79 78 78 78 77 77 77 79 78 78 76 76 77 70 69 71 78 75 76 76 77 76 81 74 76 71 69 68 68 71 76 72 73 72 76 72 70 70 70 70
72 80 79 80 79 79 79 77 78 77 77 78 77 79 79 79 68 67 70 77 77 77 77 77 77 78 75 75 74 74 74 74 72 72 73 78 79 79 73 78 74 71 72
70 70 75 77 79 79 78 78 78 78 77 78 79 77 77 79 66 66 67 76 77 77 77 78 78 78 72 67 75 74 73 75 73 66 68 68 68 67 71 70 72 70 70
69 68 71 74 76 78 79 79 80 80 79 79 79 80 76 79 67 64 65 78 75 77 78 76 68 75 67 64 73 75 73 76 75 72 72 68 65 69 66 69 73 69 70
66 67 69 71 81 82 81 76 81 80 80 79 79 80 80 77 79 62 61 77 79 77 77 77 77 64 62 61 62 78 76 78 75 71 72 73 73 73 74 72 70 71 69
65 65 67 70 77 83 81 79 78 80 78 78 78 78 80 80 68 64 61 62 73 79 79 79 80 64 59 58 59 63 63 63 70 70 70 73 71 72 74 73 73 71 73
62 64 65 68 73 83 81 81 79 80 79 78 78 78 78 80 80 63 60 60 62 75 82 77 67 61 59 60 59 62 59 64 69 69 71 74 76 76 74 73 75 76 76
61 62 65 67 72 76 79 82 81 80 79 79 78 77 79 79 80 81 71 65 62 64 71 75 71 67 64 68 65 63 63 67 69 70 72 74 71 71 72 73 75 74 72
60 61 63 68 71 75 78 76 81 81 80 80 80 80 78 78 79 74 74 75 74 69 70 74 68 67 69 68 69 70 67 64 66 68 69 70 71 71 72 73 72 72 70
58 61 61 63 67 78 76 68 53 56 57 58 60 74 81 69 62 59 57 56 57 55 65 73 72 73 72 74 74 72 72 69 70 70 70 71 72 72 73 73 72 70 69
55 58 60 61 66 72 79 74 71 61 52 51 53 56 57 64 53 52 53 52 49 55 72 71 72 72 73 73 73 73 73 74 74 72 72 73 73 73 71 71 70 70 70
55 56 59 61 63 68 72 75 73 71 71 68 52 57 51 50 53 50 48 53 59 59 71 71 71 72 72 72 73 73 74 72 73 72 72 73 72 71 70 70 70 70 69
55 57 59 61 64 66 69 72 71 71 71 70 61 55 50 48 46 46 48 67 68 68 70 72 72 73 72 72 72 73 72 71 70 71 71 70 71 70 71 70 70 61 65
55 56 57 58 61 63 66 69 71 71 71 68 67 68 60 60 66 66 67 67 69 69 71 72 71 70 69 67 66 68 69 69 70 71 71 70 68 67 66 70 68 67 67
52 54 55 55 55 59 60 64 67 71 71 68 68 65 54 70 70 70 66 65 66 65 66 68 68 66 66 66 67 66 66 68 69 70 69 65 66 67 68 66 66 66 65
50 51 51 51 51 50 54 56 59 64 68 68 64 62 54 67 68 66 62 58 57 56 55 53 51 50 52 53 55 60 61 59 59 62 63 65 66 65 65 65 65 63 63
47 48 48 47 48 48 46 50 52 52 58 64 63 62 61 60 58 56 54 52 51 50 49 49 49 47 47 48 48 47 51 51 53 57 59 61 63 64 65 65 64 62 61
45 44 45 45 45 45 44 43 45 48 49 49 50 52 52 50 49 47 46 45 45 46 46 44 44 45 45 45 45 44 43 45 50 53 58 60 60 58 62 62 62 61 61
43 42 42 42 42 42 42 42 41 42 43 46 46 44 44 45 44 43 43 42 42 41 41 41 41 42 43 43 43 43 41 40 48 44 57 60 61 61 60 58 58 59 60
42 42 41 41 40 40 39 39 39 40 40 41 41 41 41 41 41 41 41 41 40 40 40 39 40 41 41 40 39 38 35 37 45 40 51 53 53 53 55 57 58 58 59

GFSGL_sfc_temp_075.txt.gz
Temp
77 77 77 76 71 70 71 72 73 73 74 74 74 74 73 74 73 72 72 72 72 71 71 71 71 71 71 70 70 70 69 68 66 69 68 71 73 74 76 75 75 76 75
78 77 77 77 75 71 71 72 73 73 73 75 75 74 74 75 74 72 72 74 72 71 72 71 72 75 72 71 70 71 70 69 68 67 68 70 72 73 74 74 78 80 76
78 77 77 76 76 75 73 71 72 73 73 73 73 74 75 76 74 73 73 72 72 72 73 72 73 72 71 71 70 70 70 71 69 68 69 70 70 72 72 73 73 74 77
78 77 76 76 76 77 78 73 72 73 73 73 73 74 75 76 77 76 75 73 72 73 73 73 73 73 72 72 72 71 71 70 70 69 68 68 69 71 70 70 72 71 75
77 76 77 77 77 77 77 77 73 72 75 74 74 73 75 76 78 76 75 74 74 73 73 73 73 74 73 72 74 72 72 71 70 69 68 69 69 69 70 70 69 71 72
78 77 75 76 77 76 76 76 77 73 73 71 73 76 73 78 72 70 75 76 74 73 73 72 73 73 72 70 69 70 73 72 70 69 70 70 71 70 69 69 68 67 71
77 77 77 72 72 75 76 75 75 76 76 75 73 74 75 77 69 68 71 79 77 75 74 74 73 78 72 74 70 68 68 67 70 73 72 71 71 72 70 68 69 68 68
71 74 77 76 74 75 75 75 75 76 76 76 76 76 74 77 68 66 69 76 76 76 76 75 75 76 73 73 73 72 72 72 71 71 71 75 76 77 72 74 72 70 70
69 69 72 75 76 75 74 76 76 76 76 76 77 77 77 77 65 65 66 74 75 75 75 75 75 75 71 66 73 72 72 73 71 65 67 67 66 66 67 69 70 68 69
66 68 70 72 74 75 77 75 74 75 76 77 76 77 73 77 65 63 65 77 75 76 77 75 67 74 66 63 70 73 71 75 74 72 71 67 65 68 65 68 71 69 69
64 65 67 69 70 70 75 76 77 75 74 75 76 77 77 75 76 61 61 76 77 77 76 77 77 64 61 59 61 75 74 76 74 71 70 69 70 71 72 70 70 70 68
62 64 65 66 68 71 73 77 76 75 74 75 75 76 77 78 66 62 60 62 72 78 77 78 77 63 59 58 59 62 61 63 71 68 68 70 72 72 73 72 72 71 72
59 60 62 64 66 68 71 75 74 73 76 75 76 75 76 78 79 61 59 59 61 73 79 75 66 60 57 58 58 60 59 65 68 66 69 71 73 75 72 71 72 72 72
58 59 60 62 64 68 71 73 73 74 74 77 76 76 77 77 77 79 69 64 61 64 69 73 70 66 64 67 64 62 64 66 67 68 70 72 69 68 69 70 71 72 72
56 56 59 61 63 64 68 72 73 75 74 77 78 79 75 76 77 72 73 74 73 69 69 72 73 68 71 70 68 69 68 64 65 67 66 66 67 67 68 71 72 72 72
52 55 56 59 60 62 66 72 54 57 56 55 56 67 75 66 58 55 54 54 55 54 66 72 73 73 72 72 72 71 69 67 68 67 67 67 68 68 70 71 72 72 71
51 53 56 57 60 61 63 67 73 64 51 49 50 53 55 64 52 51 51 51 50 53 71 72 72 74 73 73 72 73 72 72 73 71 70 69 70 71 69 72 70 69 68
52 52 55 58 59 61 63 66 70 71 70 71 56 53 52 51 51 51 48 51 59 56 71 72 72 72 72 72 72 72 72 72 71 71 70 71 72 72 71 70 69 69 68
51 53 56 56 57 58 61 66 68 72 72 72 66 56 52 48 47 45 46 70 71 68 67 71 72 72 72 72 72 72 72 71 71 72 72 72 71 70 68 67 66 59 60
50 53 54 54 55 56 59 61 64 69 71 71 69 70 60 58 63 64 60 65 69 70 69 70 72 72 72 71 71 71 70 69 70 70 70 68 68 68 66 65 65 64 65
48 50 53 52 53 52 53 56 57 61 67 70 70 68 56 66 69 70 68 67 66 65 66 68 68 68 66 66 65 65 66 66 67 68 69 68 65 63 64 66 67 66 64
48 48 50 49 49 49 48 50 53 53 55 66 65 60 51 67 66 61 57 55 53 52 52 52 52 52 51 52 57 62 64 64 63 63 65 65 64 65 64 64 64 63 63
46 46 47 47 46 47 46 46 46 50 49 52 57 58 57 53 52 50 48 47 47 47 46 47 47 48 48 49 50 51 54 54 52 55 59 61 62 63 63 63 63 63 62
44 44 43 43 44 44 44 44 43 43 46 46 46 47 47 47 46 45 45 44 44 45 47 45 43 43 45 45 45 45 41 43 48 53 56 59 59 57 61 61 61 62 63
42 42 41 41 41 40 41 41 43 42 42 42 43 44 44 44 43 42 42 42 42 43 42 43 41 41 41 41 41 40 36 37 43 44 54 57 59 60 60 60 60 60 60
41 41 40 40 39 39 39 39 39 40 41 40 40 40 41 42 42 41 42 42 41 41 40 40 40 40 40 39 38 35 34 35 39 38 48 50 50 50 54 56 57 57 55

GFSGL_sfc_temp_078.txt.gz
Temp
76 76 75 73 72 71 73 74 75 75 75 75 76 76 76 74 74 74 74 75 75 75 75 75 75 75 76 76 75 75 75 74 73 76 75 78 78 79 82 82 82 82 83
76 75 75 75 73 72 72 73 74 75 75 75 75 76 76 76 75 75 74 77 75 75 75 75 75 77 75 75 76 75 75 75 75 73 75 77 78 80 80 79 82 85 83
75 76 75 75 73 73 73 73 73 74 74 75 75 75 76 76 76 76 75 76 76 76 76 75 76 76 75 76 75 75 76 76 75 74 75 76 78 79 80 80 80 80 83
75 76 74 75 75 75 75 73 73 73 74 74 75 76 76 76 77 77 76 76 76 76 76 76 77 76 76 76 76 75 76 75 75 74 74 75 76 78 77 76 79 81 80
75 75 75 75 75 75 75 74 74 73 74 75 75 76 76 77 78 76 77 76 76 76 76 76 77 76 72 74 78 77 75 75 75 74 74 75 76 76 76 78 75 78 79
74 73 75 75 74 74 74 74 72 73 73 73 74 75 75 79 71 70 75 77 77 76 76 76 77 74 73 69 68 69 75 76 75 75 75 74 76 75 77 76 75 75 75
73 74 72 72 73 74 74 73 72 72 73 72 73 74 75 76 68 68 70 78 77 77 76 77 77 80 73 78 71 67 67 67 69 77 75 76 76 78 78 76 75 74 75
70 74 74 73 73 73 73 72 73 74 73 73 73 73 74 76 66 66 69 77 77 77 77 77 77 78 77 77 77 77 77 78 76 75 75 77 78 79 78 79 76 75 76
66 69 72 74 73 73 73 73 73 74 73 74 74 73 73 75 65 64 67 76 77 77 77 77 77 77 70 65 76 76 76 77 72 65 67 67 66 66 69 75 75 73 76
62 64 66 68 70 73 73 72 73 74 75 76 75 75 71 74 64 62 65 77 76 77 77 76 66 75 65 62 74 76 75 76 78 78 77 70 66 71 64 72 77 74 75
62 63 65 67 67 70 71 74 73 74 72 74 74 75 75 73 74 61 60 75 77 77 77 79 79 62 60 58 61 76 75 77 75 77 78 78 78 77 78 76 76 76 74
60 62 63 64 66 68 68 70 73 74 73 73 73 75 76 76 65 61 59 61 71 78 77 79 78 61 58 57 59 62 60 62 76 77 75 76 77 78 79 78 77 75 77
58 60 61 63 64 66 67 67 69 73 73 73 74 74 75 77 77 61 58 58 61 73 80 75 66 59 58 58 57 59 58 69 72 73 73 75 77 79 78 76 77 77 76
56 57 58 60 62 63 66 67 67 72 74 74 75 75 76 77 77 78 71 66 60 64 69 74 70 67 64 69 67 64 69 72 73 73 75 76 77 74 74 75 75 75 75
55 55 56 58 59 61 64 65 67 71 73 76 77 77 76 75 77 71 72 75 74 69 69 74 75 74 74 75 73 74 74 73 71 73 73 74 73 73 73 74 74 75 74
53 55 55 56 58 59 61 64 58 55 54 54 55 68 78 66 59 54 54 53 54 53 67 73 73 73 73 74 75 76 75 71 74 75 73 72 72 73 73 74 75 75 74
51 53 55 55 58 58 60 60 62 64 54 51 50 51 52 63 50 51 50 51 49 54 73 73 73 75 75 74 75 76 76 76 75 75 74 73 73 74 71 74 74 75 73
50 51 52 55 58 57 58 59 61 64 66 69 56 54 51 50 48 50 49 51 61 56 71 72 73 73 73 74 74 75 76 76 74 74 73 73 73 72 71 72 74 74 74
49 49 52 53 55 55 56 59 60 62 65 68 72 58 52 47 49 49 48 70 71 71 68 71 73 74 73 73 73 73 74 74 74 74 73 73 72 72 72 73 74 64 67
49 50 51 52 53 53 55 56 57 59 60 63 69 71 63 58 62 61 59 65 71 73 73 71 72 74 74 73 73 73 73 72 73 73 74 73 73 72 72 73 73 71 68
49 48 50 51 51 52 53 52 53 55 56 59 62 67 56 67 69 70 69 67 69 71 72 71 71 73 73 73 73 73 73 74 73 73 73 73 72 70 70 70 70 70 71
47 47 48 49 49 49 50 50 49 51 52 53 56 62 49 64 68 65 59 55 52 52 53 54 52 52 53 54 56 62 67 68 68 70 72 71 69 69 70 70 70 70 71
45 46 46 46 47 47 47 48 47 46 49 49 50 51 51 49 48 47 47 47 46 46 46 47 49 47 48 48 50 49 52 55 55 58 62 65 68 69 69 69 70 69 70
44 44 43 43 43 43 43 44 44 43 44 46 46 46 45 44 44 44 44 44 44 44 46 45 44 44 45 46 46 48 50 49 53 56 59 63 66 63 69 68 69 70 68
42 42 41 41 40 40 41 41 41 42 42 42 43 43 43 43 42 42 42 42 42 42 42 42 42 42 42 42 43 43 39 40 47 48 56 57 58 60 61 60 60 61 64
41 41 40 40 40 40 39 39 39 39 39 40 40 40 41 41 41 41 41 41 40 40 39 39 40 41 40 41 40 39 36 36 40 38 49 50 49 48 50 52 56 56 56

GFSGL_sfc_temp_081.txt.gz
Temp
83 83 83 83 83 82 82 83 84 85 85 84 85 85 85 85 84 83 83 84 83 82 84 83 83 84 87 88 87 87 86 85 83 88 88 89 86 87 90 91 93 93 95
83 80 81 82 82 83 82 83 84 83 85 85 85 84 85 85 84 83 83 86 83 83 84 83 83 86 82 84 86 83 85 85 84 80 86 88 86 87 87 87 91 96 93
83 80 79 79 80 82 82 83 83 83 84 86 85 84 84 85 84 84 84 84 84 85 85 84 84 84 82 86 84 85 87 85 85 83 84 88 88 89 87 89 88 89 95
85 84 82 79 79 80 83 83 83 82 83 83 84 85 85 86 85 85 85 84 84 85 85 85 85 85 84 83 84 82 85 84 85 84 85 86 88 88 87 88 88 91 90
83 83 83 83 83 80 78 81 82 82 82 83 83 84 85 87 89 85 85 85 84 84 85 85 86 84 77 79 87 85 84 84 86 85 85 87 87 87 85 88 87 89 90
78 81 82 82 82 81 81 80 81 81 81 82 82 83 84 87 76 71 81 86 85 84 84 85 85 78 76 70 69 70 77 82 81 84 86 84 82 84 88 87 86 84 83
74 78 79 80 80 80 81 80 80 80 82 80 81 82 82 84 70 68 70 88 87 85 84 85 87 90 80 86 72 68 68 67 70 82 81 82 82 84 84 82 83 84 84
72 75 78 79 79 80 80 79 79 80 80 80 80 81 81 84 68 66 68 83 86 86 86 85 85 86 86 85 86 86 86 86 83 83 82 84 85 86 85 85 82 81 85
63 67 68 69 75 79 78 78 79 79 79 80 81 80 80 81 66 64 67 83 85 84 86 86 86 85 76 67 83 84 84 85 79 68 69 68 68 67 71 85 84 85 85
60 62 66 69 69 70 76 78 80 80 80 82 81 82 76 81 67 62 66 85 84 85 84 84 69 80 68 63 80 83 81 84 86 87 86 76 69 77 64 77 85 84 85
64 62 63 66 66 69 70 71 75 77 79 79 79 80 80 80 79 61 60 80 85 85 86 87 88 64 62 59 63 84 82 84 82 85 86 88 89 88 89 85 84 85 85
63 62 62 64 64 66 67 70 70 70 73 76 76 78 82 81 67 64 59 60 74 84 85 88 86 62 58 58 61 67 62 65 85 85 87 87 88 89 90 90 87 85 87
59 61 62 63 63 65 65 66 68 69 70 74 75 75 77 83 84 61 58 58 60 78 86 80 68 58 56 60 57 61 59 78 82 83 84 86 89 90 87 86 85 84 83
57 58 62 63 64 63 66 66 66 68 71 76 79 73 73 75 84 85 79 73 61 67 73 80 76 70 67 75 75 68 77 82 82 83 85 87 89 87 86 87 86 87 85
62 62 61 62 64 63 64 66 67 68 67 70 73 75 76 78 83 75 76 83 82 75 75 81 82 80 80 80 81 83 84 83 81 83 84 85 85 86 85 87 86 85 84
58 62 64 63 64 61 61 62 57 54 53 50 49 55 69 65 59 54 55 53 53 54 74 81 81 81 78 78 78 78 80 77 84 84 84 85 85 85 85 86 85 84 83
56 56 60 59 63 59 61 61 59 61 53 51 49 49 48 56 53 50 50 50 52 56 78 80 79 78 78 78 79 79 79 85 84 83 84 84 85 85 83 84 85 84 83
56 53 56 57 56 57 58 58 59 59 60 64 60 54 53 48 48 50 49 51 64 57 77 77 79 79 80 80 79 79 80 79 78 81 83 84 84 84 84 83 83 82 81
53 56 54 55 56 55 56 57 58 60 62 62 64 63 62 49 49 48 49 73 76 78 72 76 78 78 78 80 82 82 81 76 75 76 76 77 77 77 75 77 76 65 69
53 52 52 53 53 54 55 55 56 58 59 60 61 63 66 60 63 61 60 66 75 79 78 76 77 82 80 78 77 78 78 76 74 74 75 75 76 75 73 75 76 73 73
54 52 51 52 52 53 54 54 55 54 55 56 58 61 48 56 66 69 68 66 68 73 74 75 73 74 75 76 75 75 75 75 74 75 74 74 75 74 74 75 75 75 80
49 49 50 50 51 51 52 53 52 52 51 53 55 55 47 57 59 57 57 55 54 52 53 57 58 57 56 57 57 63 69 71 71 69 72 73 73 73 73 73 73 73 79
49 49 48 48 49 48 49 50 50 49 49 50 51 51 51 50 49 49 49 49 48 48 49 50 51 51 52 50 50 51 54 57 57 59 62 64 67 69 70 70 73 75 77
45 45 45 45 45 45 45 45 45 44 45 47 48 47 46 45 44 44 45 44 44 45 47 48 48 46 48 47 49 47 46 49 55 59 61 64 66 64 68 69 72 72 73
43 42 42 42 42 43 43 43 43 43 43 43 44 44 44 43 43 42 43 43 43 42 42 43 43 43 42 42 41 43 37 39 51 48 59 59 59 58 59 57 59 61 60
40 41 41 41 41 41 41 40 40 40 40 40 41 41 42 41 41 41 41 41 40 40 40 40 41 41 41 41 39 36 34 36 43 39 53 54 53 53 53 53 53 53 53

GFSGL_sfc_temp_084.txt.gz
Temp
90 89 89 90 89 88 88 88 88 90 91 88 89 88 90 90 90 87 89 90 87 87 89 89 87 89 92 95 95 94 93 93 88 93 97 97 92 91 94 94 96 97 101
91 88 89 89 90 89 87 89 88 88 90 90 89 88 89 90 90 88 88 91 88 87 88 88 88 92 87 88 92 89 91 91 90 84 90 93 92 92 92 90 96 101 99
92 89 88 88 89 85 88 89 89 88 88 91 90 89 88 90 89 88 89 89 90 89 89 88 88 88 86 90 90 92 93 92 91 89 89 94 95 95 93 93 93 95 101
95 92 87 85 85 86 84 88 89 88 87 88 89 89 90 90 91 91 89 88 89 90 90 90 90 89 88 87 88 87 88 88 90 90 91 92 94 95 94 93 94 98 97
86 90 90 89 87 84 83 83 88 88 88 88 88 89 89 91 94 89 90 90 88 89 91 91 91 88 80 82 91 89 88 88 91 91 91 93 93 93 90 94 93 95 95
79 82 87 87 87 87 86 85 84 86 87 87 87 88 88 93 79 73 83 89 90 88 89 90 90 81 80 72 71 72 78 85 84 88 90 89 87 89 93 92 91 90 87
68 79 80 82 82 83 85 85 84 83 85 85 86 87 87 88 73 69 72 91 92 90 89 90 92 96 84 91 73 69 69 68 70 83 83 85 85 87 88 85 87 87 87
64 65 68 74 76 83 82 82 83 85 84 85 85 85 86 88 70 68 69 87 89 90 91 90 89 91 92 90 90 90 89 89 84 86 85 86 88 89 88 89 87 85 89
64 62 63 65 69 73 76 81 82 80 82 85 86 85 85 85 67 66 70 87 87 87 90 91 91 90 80 69 88 88 89 90 82 71 71 71 68 67 73 88 88 89 90
69 67 65 64 65 67 72 77 78 81 83 85 86 87 80 85 69 63 68 88 87 89 88 88 73 83 71 66 85 86 85 88 91 92 89 79 72 80 66 80 88 87 90
71 72 70 65 63 65 65 71 77 78 78 79 82 85 86 84 84 61 60 84 89 90 91 92 94 68 65 61 64 87 85 87 86 90 91 93 94 94 95 87 88 89 90
71 70 69 70 71 66 65 66 70 74 75 77 76 79 86 86 70 66 59 61 76 87 89 94 92 66 60 60 64 69 63 66 90 92 92 93 94 96 98 97 93 91 93
69 69 70 68 70 72 70 68 66 69 73 76 70 73 82 86 84 63 60 58 60 76 89 84 67 59 56 60 58 62 61 82 85 88 89 92 95 98 95 94 93 91 89
67 68 70 70 63 69 75 77 71 68 68 75 79 73 74 78 83 89 87 78 62 69 72 80 79 73 63 73 77 70 80 86 87 88 90 93 96 96 95 95 93 94 92
67 69 70 73 73 64 70 75 75 74 65 65 72 76 77 78 78 66 68 83 84 80 75 84 86 86 86 87 87 88 88 87 85 87 89 91 92 93 93 95 94 93 91
65 68 70 70 72 73 66 71 62 54 51 49 48 55 67 59 55 55 54 53 54 56 71 82 85 87 88 89 88 88 89 85 90 90 89 90 90 91 92 93 94 92 90
60 65 68 65 70 71 71 71 69 66 55 51 48 48 48 51 50 49 47 48 49 57 77 79 84 88 89 89 84 82 83 87 87 89 90 90 90 91 89 91 92 92 91
58 55 62 66 68 68 68 70 70 68 65 63 60 53 51 49 48 46 45 47 64 56 71 78 78 82 84 82 80 84 86 87 88 89 89 89 89 89 89 89 91 89 90
55 57 60 64 65 62 64 66 67 64 63 64 66 63 63 51 48 45 43 60 68 76 73 76 82 84 84 85 84 81 84 84 83 83 84 85 84 88 88 89 90 72 77
55 55 55 56 57 58 59 59 60 60 62 63 66 65 69 62 63 66 64 61 66 74 85 80 81 85 86 85 82 80 81 81 81 80 79 80 78 78 76 78 80 81 81
56 58 56 56 55 56 58 57 58 59 60 62 63 64 46 57 59 62 65 65 66 68 74 79 77 82 84 81 80 79 80 80 79 78 79 78 77 74 75 75 77 79 79
53 51 52 54 55 55 55 56 58 61 61 60 62 61 48 59 57 55 55 53 54 55 55 57 59 56 57 60 60 64 63 64 70 73 74 75 74 74 75 74 75 75 76
50 50 51 51 52 52 53 55 56 58 58 57 57 55 54 54 51 49 49 49 50 50 51 52 54 53 53 53 53 54 57 58 58 59 62 65 67 68 71 71 72 72 73
47 46 45 45 46 47 49 50 52 48 49 52 53 51 49 49 47 46 46 46 47 47 48 48 48 49 50 51 52 53 51 52 55 58 61 64 66 65 66 66 67 68 67
43 42 42 42 42 43 44 46 46 47 47 47 47 47 46 46 45 44 43 43 43 43 43 44 45 45 45 45 45 44 38 39 52 51 61 62 61 62 60 61 61 60 61
40 39 39 40 40 41 41 42 42 42 43 43 43 43 43 42 42 42 41 41 41 40 40 41 42 42 42 42 40 36 33 36 47 41 60 62 59 57 58 58 58 58 58

GFSGL_sfc_temp_087.txt.gz
Temp
92 91 91 91 91 89 90 90 90 91 91 92 90 91 91 91 90 89 88 91 88 88 89 90 89 89 92 96 97 96 94 93 88 92 97 96 93 93 94 95 95 95 99
94 92 92 92 92 91 89 90 90 89 91 90 90 90 89 91 91 88 89 92 90 88 88 88 89 92 87 88 91 89 91 90 89 83 88 92 91 94 93 91 95 100 99
95 95 93 92 91 91 91 90 91 89 89 91 91 88 88 90 90 90 88 90 90 90 90 89 89 89 87 90 90 91 93 91 91 89 89 94 95 96 93 93 93 94 100
77 89 92 91 92 92 91 90 91 90 89 89 90 91 90 90 91 91 91 89 90 91 92 91 91 90 88 87 88 87 89 89 89 90 90 92 94 95 96 93 94 98 97
79 83 78 91 90 90 89 88 88 90 90 89 89 90 91 92 95 91 91 91 88 88 91 92 92 89 81 82 91 87 87 88 89 91 91 93 93 92 89 93 92 95 94
72 73 76 77 78 83 88 86 86 85 87 89 88 89 89 93 80 74 84 91 90 86 87 90 92 82 82 74 73 73 77 83 85 87 89 87 85 88 92 92 90 88 85
67 67 71 73 73 73 79 82 83 84 86 87 88 89 88 89 74 70 73 92 92 89 89 89 91 97 84 91 74 72 72 69 70 82 82 84 84 86 86 85 85 86 86
65 66 66 68 70 71 73 78 81 82 81 84 86 87 87 89 71 69 70 88 89 89 90 91 89 90 91 90 90 90 87 87 84 85 83 84 86 87 86 87 85 85 88
71 68 66 66 66 68 71 71 76 78 81 81 84 85 86 87 69 66 70 87 88 87 89 90 90 90 80 73 88 88 89 90 83 73 74 74 74 72 74 88 87 87 87
75 74 75 72 68 65 67 68 70 75 77 80 82 86 80 86 71 64 68 88 87 89 88 87 74 82 73 67 85 87 85 87 90 91 89 78 73 80 68 79 86 84 87
75 75 75 74 73 69 66 67 68 71 73 75 79 81 83 84 84 62 61 85 87 90 91 93 94 70 67 64 63 87 84 87 85 88 91 92 93 94 92 89 86 87 87
73 73 73 74 74 76 73 70 69 70 70 74 76 76 82 82 71 67 60 61 76 85 88 94 93 67 62 62 66 72 66 68 89 90 91 92 94 96 98 97 90 89 92
70 70 72 73 74 74 72 73 76 74 73 74 78 79 80 80 79 65 59 59 60 73 87 83 62 60 58 60 58 60 61 82 86 86 87 88 92 97 92 92 92 89 88
68 68 71 72 72 74 77 77 79 79 79 74 73 75 68 72 81 80 77 71 63 66 68 78 76 71 61 69 76 70 80 86 86 87 87 90 93 94 95 97 95 95 94
68 69 71 74 74 76 76 78 76 76 72 73 74 74 71 72 72 57 57 64 66 63 61 73 82 86 84 87 89 89 87 87 85 85 87 89 91 93 93 96 95 95 92
66 70 72 73 74 75 75 76 60 58 55 52 49 57 71 60 53 50 48 49 49 51 63 71 72 78 82 85 87 89 88 85 90 90 88 88 89 90 92 94 94 93 91
61 62 66 66 72 73 73 73 73 72 52 51 48 48 45 49 46 45 44 45 47 51 65 74 76 74 76 79 83 87 87 94 89 91 91 91 91 91 89 90 91 92 91
59 54 59 62 67 69 71 73 73 73 73 75 59 55 57 47 46 45 44 46 62 59 65 72 77 74 76 77 78 81 87 89 89 88 88 90 90 90 90 89 90 89 90
57 58 59 59 62 63 66 67 68 69 71 73 75 67 64 51 46 45 45 58 64 67 70 71 78 78 74 75 78 77 80 81 81 80 81 83 84 81 81 88 90 73 79
58 56 56 58 58 60 62 63 66 67 69 70 72 74 76 71 72 70 70 65 64 65 67 71 79 82 80 77 79 76 77 78 79 80 84 82 82 83 82 81 80 80 81
54 56 55 55 55 56 57 58 61 64 65 67 70 71 45 69 69 68 63 61 59 58 60 62 64 73 74 74 76 78 77 77 79 79 80 80 80 79 79 79 78 79 78
51 51 51 52 53 52 52 55 56 57 61 65 70 71 49 68 68 64 59 56 55 54 54 54 56 58 60 62 61 64 66 69 70 72 76 78 77 76 76 76 76 74 74
53 52 51 50 50 50 50 52 53 54 57 62 64 64 65 65 64 59 55 53 51 50 51 51 52 54 55 56 56 55 58 61 62 63 64 65 66 67 68 69 71 71 71
47 46 45 46 46 46 46 47 48 47 50 53 56 56 56 55 54 52 51 48 47 48 47 47 47 47 49 51 52 51 52 52 53 59 63 64 64 64 67 68 65 64 65
44 43 42 41 42 43 43 43 44 45 46 48 49 50 50 50 48 47 47 45 45 44 43 44 44 44 44 44 45 45 42 36 46 48 59 62 64 63 64 64 62 60 61
45 42 40 39 39 39 40 40 41 42 43 43 44 45 45 45 44 44 44 43 42 42 41 42 42 41 41 42 41 38 35 38 48 41 60 62 62 60 60 58 58 57 59

GFSGL_sfc_temp_090.txt.gz
Temp
87 86 86 86 86 86 86 88 88 89 78 75 73 73 80 84 85 83 81 81 82 82 83 83 82 83 82 83 82 82 82 82 77 79 82 84 82 83 85 85 86 85 87
88 86 86 86 87 86 85 86 87 85 87 83 77 78 83 86 83 82 83 85 81 82 83 82 82 87 82 82 82 80 81 82 79 76 79 80 81 82 83 84 87 94 87
80 89 89 88 87 87 85 86 86 86 85 87 86 85 84 85 85 82 82 83 83 84 84 82 83 82 81 81 81 81 81 82 81 79 78 81 81 83 82 84 84 84 90
72 77 76 86 88 88 86 84 86 85 85 85 85 85 84 85 85 86 85 82 82 84 84 84 84 83 82 81 82 80 82 80 80 79 78 80 81 82 82 81 80 81 82
72 70 72 73 80 89 86 83 86 86 86 85 85 85 86 86 89 85 85 85 82 83 84 84 85 84 80 81 84 80 80 80 80 78 79 79 79 79 78 80 78 79 80
69 68 70 70 73 76 77 81 83 84 84 83 84 85 84 89 80 75 81 85 85 83 82 82 84 81 78 74 73 74 76 79 78 78 78 76 76 78 79 78 77 75 74
69 69 69 70 71 72 74 76 78 81 82 82 83 84 83 84 74 70 71 85 85 84 82 82 84 91 80 84 74 72 73 70 72 77 76 77 77 78 79 78 78 77 78
69 69 69 68 69 70 70 71 72 75 78 79 80 82 81 83 72 71 70 79 83 83 84 83 83 83 84 83 83 82 81 81 79 78 76 78 79 80 80 80 78 78 80
72 71 70 68 68 68 67 67 70 70 71 76 79 80 80 81 68 66 69 81 82 81 83 84 84 83 77 73 81 81 82 83 78 72 72 73 72 72 74 78 78 77 76
71 72 73 73 72 71 69 68 70 71 72 76 76 78 76 79 70 63 66 82 82 83 82 81 73 76 71 68 77 81 79 81 83 84 81 73 71 74 68 75 80 77 77
71 72 72 73 72 73 72 72 70 70 72 73 74 76 78 76 77 63 60 76 80 82 83 84 86 69 65 64 63 81 81 82 80 82 84 84 85 85 83 80 80 80 78
69 69 69 71 73 73 72 70 71 71 70 71 73 76 80 77 67 66 60 60 67 75 77 80 83 63 58 58 63 68 67 69 83 83 83 82 83 84 85 85 83 82 84
68 67 68 69 70 71 71 70 71 72 73 73 74 73 74 74 71 61 59 58 59 64 68 69 60 60 58 61 59 60 59 75 78 79 80 81 83 85 83 81 81 82 81
65 66 67 68 68 70 73 74 75 74 74 75 74 73 74 73 75 69 66 65 62 65 65 68 65 61 61 65 68 74 69 76 78 79 80 82 83 83 82 84 83 85 84
62 65 67 70 69 70 71 73 74 74 72 72 71 72 70 69 71 55 55 63 63 60 56 62 67 71 76 79 80 81 81 77 77 80 80 81 81 82 82 84 84 83 80
59 62 64 65 68 69 69 71 65 59 55 53 52 59 70 60 53 51 45 45 45 48 56 61 66 69 70 74 75 79 82 80 82 81 80 80 79 80 81 82 83 82 81
56 57 59 59 63 63 66 66 66 68 58 51 49 49 47 54 50 46 43 43 44 48 57 62 66 68 70 73 74 75 78 81 80 82 78 81 82 81 79 81 81 82 81
56 54 57 59 60 62 63 64 66 64 64 68 60 52 49 46 45 43 43 46 64 58 62 64 68 70 70 73 76 78 78 77 78 76 76 75 76 80 80 81 82 80 80
59 59 58 57 57 57 58 61 62 63 64 66 68 64 62 48 47 44 43 63 67 68 69 68 70 71 73 75 76 77 75 76 75 76 76 75 76 77 76 78 79 66 71
58 56 56 56 56 57 57 55 56 58 59 62 64 67 70 68 69 70 69 70 68 66 66 63 63 63 63 65 71 75 75 75 75 75 75 73 74 75 75 76 76 76 75
57 57 55 55 53 52 53 54 53 53 54 56 59 62 52 62 67 67 68 68 65 61 59 58 56 56 57 59 61 67 73 75 75 75 72 72 73 73 74 75 75 76 75
57 55 54 52 52 51 50 50 51 52 52 52 54 57 51 58 65 67 67 63 58 56 55 54 52 53 54 55 56 57 60 66 68 67 67 67 68 70 72 72 72 72 72
54 51 49 48 48 47 48 49 48 49 51 52 52 52 55 56 58 59 59 57 54 53 51 50 49 49 50 51 53 55 55 58 60 61 62 63 64 66 67 67 68 70 71
52 50 47 46 45 44 43 43 44 44 46 47 48 51 50 51 52 52 54 54 51 49 48 47 46 46 46 46 47 48 49 51 50 52 57 60 63 62 65 66 66 66 66
52 48 45 44 43 42 40 40 41 42 43 44 45 46 47 48 48 49 49 49 47 46 45 44 44 44 44 43 43 43 41 36 39 43 53 58 60 63 63 63 63 61 62
52 49 44 43 42 40 39 38 38 39 40 41 42 43 43 44 44 45 45 44 43 43 42 42 41 41 42 42 41 37 34 33 40 39 50 59 60 59 60 59 59 58 58

GFSGL_sfc_temp_096.txt.gz
Temp
71 71 71 74 74 73 74 75 72 73 73 73 74 74 74 75 75 74 73 74 74 73 73 73 73 73 72 73 73 72 71 71 68 71 72 75 75 75 79 78 79 80 80
70 71 71 73 73 74 74 74 74 73 73 73 73 72 73 74 74 74 74 76 74 73 74 73 73 77 73 73 72 72 71 71 70 69 70 73 74 76 77 76 80 84 80
70 70 70 70 72 73 74 75 74 74 73 73 73 72 72 73 74 74 74 75 74 74 75 74 74 73 72 72 71 72 71 73 71 70 70 71 72 75 75 76 76 77 81
69 69 69 69 70 69 71 72 73 74 74 74 73 73 73 74 75 75 75 74 74 75 75 75 75 75 74 74 73 72 72 71 70 69 69 69 70 74 73 72 72 72 73
69 69 68 69 70 68 69 70 71 73 74 75 75 74 74 75 79 75 75 74 73 74 74 74 76 76 74 73 76 73 72 71 70 69 69 69 69 69 69 71 69 69 70
66 67 68 67 68 68 69 69 69 69 72 74 75 74 74 79 72 71 74 74 75 74 74 74 76 75 74 71 70 71 74 72 71 69 69 68 69 69 69 69 69 68 67
64 65 65 65 65 65 66 66 67 67 68 69 71 73 73 74 68 67 69 72 73 74 74 76 77 82 75 77 73 70 68 68 71 72 71 70 69 70 70 69 68 68 69
65 65 65 65 65 65 65 65 65 66 67 68 68 70 70 73 67 65 66 70 72 73 74 74 74 76 76 74 74 74 74 74 72 73 74 78 74 77 72 75 71 70 70
61 63 65 65 64 65 65 65 65 65 65 66 68 68 69 70 63 62 64 71 71 71 73 74 75 75 71 67 72 73 74 75 74 67 68 68 68 68 69 71 69 68 71
58 60 61 62 62 63 63 63 64 64 65 66 67 67 66 69 60 59 62 69 69 70 72 73 67 72 66 63 71 74 73 77 76 75 76 69 66 70 65 71 75 69 70
57 58 59 59 61 62 61 61 62 63 64 63 65 67 68 66 63 57 58 67 67 68 70 72 71 58 55 56 56 65 70 72 71 72 73 76 77 74 75 71 72 74 72
54 55 55 57 59 61 58 60 60 60 60 61 62 65 67 66 59 56 56 58 61 64 65 66 67 57 55 57 58 60 58 59 65 68 71 73 76 79 80 78 76 75 78
51 51 52 54 56 57 55 56 59 59 58 58 59 60 61 63 63 56 57 59 60 62 65 63 57 56 55 57 59 58 58 64 65 64 67 71 75 79 81 80 75 76 77
48 48 50 50 51 52 56 57 57 57 57 58 58 58 59 59 60 58 60 57 58 60 62 62 60 58 57 58 60 65 66 67 69 71 73 75 77 76 77 79 78 78 76
47 47 46 48 47 49 52 52 54 54 50 52 54 53 54 57 62 53 51 58 53 51 51 56 59 62 62 65 67 68 69 71 70 70 70 72 74 75 75 77 77 76 73
45 45 45 45 46 48 48 51 51 51 50 47 46 47 55 52 48 46 45 44 43 45 53 55 57 60 60 61 62 64 67 68 70 70 69 69 71 73 74 75 74 73 73
44 44 44 45 45 45 47 45 47 51 51 49 47 48 47 46 45 45 44 42 44 45 52 56 56 60 61 61 62 65 66 67 68 69 69 71 71 70 69 70 71 70 72
44 49 43 44 44 44 44 45 47 47 47 49 50 49 48 46 45 45 42 47 54 51 53 55 57 60 62 60 58 58 60 61 63 62 64 66 69 71 71 71 71 70 70
44 44 43 43 43 45 44 44 45 46 46 47 49 49 49 47 46 46 43 49 52 54 56 58 60 59 56 54 54 56 55 55 56 58 59 62 65 69 70 70 70 62 64
44 52 48 41 41 41 41 42 42 42 42 43 44 46 49 49 48 49 50 51 52 53 55 54 53 52 53 52 53 52 52 53 54 54 55 58 60 64 68 69 70 68 67
42 42 48 40 39 39 39 39 39 40 40 41 42 45 45 44 45 48 48 49 51 52 52 53 53 53 53 51 51 51 50 51 52 53 54 55 58 58 60 64 69 70 69
41 40 40 38 38 38 37 38 37 39 39 39 40 42 43 44 44 45 48 49 49 50 51 51 51 50 49 47 48 49 48 48 49 50 51 52 52 54 56 60 63 67 67
41 40 39 38 38 40 37 36 38 42 41 41 41 42 42 42 42 44 45 46 48 48 50 50 49 47 47 48 47 47 46 46 47 47 46 47 48 49 51 54 59 63 66
41 40 39 38 37 37 36 35 36 39 40 40 40 40 40 40 40 41 43 44 45 46 47 47 47 47 45 46 46 46 45 45 45 45 43 42 43 44 47 51 55 60 63
40 40 38 38 37 36 36 35 35 39 39 39 38 38 38 38 38 39 40 42 42 43 44 45 45 45 45 45 44 43 41 38 39 39 39 39 40 42 44 47 51 56 61
40 40 38 37 36 36 35 34 33 34 37 37 37 37 37 36 36 37 38 39 40 40 41 42 43 43 43 42 42 39 35 33 35 34 37 38 39 42 45 48 51 55 59

GFSGL_sfc_temp_099.txt.gz
Temp
71 71 71 72 72 72 72 73 73 73 73 73 73 74 74 74 74 73 72 72 72 71 72 71 72 72 71 71 71 70 70 69 67 70 70 73 73 75 78 77 77 78 78
69 70 72 72 72 72 72 73 74 73 73 73 73 72 73 73 73 73 72 74 73 72 72 71 71 75 71 71 70 70 70 69 68 67 69 70 72 74 75 76 78 81 77
69 69 69 70 70 71 71 71 73 73 72 72 72 71 72 72 72 73 73 73 73 73 73 71 72 71 70 70 70 70 69 71 69 68 68 69 70 71 72 74 75 74 79
69 69 68 69 67 67 68 70 71 72 71 72 72 72 71 72 72 73 73 73 73 74 74 73 73 73 72 72 72 71 70 69 69 68 68 68 68 71 70 70 71 70 74
68 68 68 68 69 68 68 68 69 70 72 72 72 72 72 73 76 73 74 74 72 72 73 73 74 74 73 71 73 72 71 70 69 68 68 68 68 68 68 69 68 68 69
67 67 68 68 68 67 67 67 67 68 69 69 71 72 72 76 71 69 73 73 73 72 72 72 74 73 73 70 69 69 71 71 70 68 69 68 68 68 68 68 67 66 65
65 65 65 65 65 64 65 65 65 65 67 67 68 69 70 71 65 64 66 70 72 72 72 72 74 79 73 75 71 68 68 67 69 72 70 70 69 69 69 67 67 66 67
63 63 63 64 64 65 65 64 64 65 65 66 67 68 68 70 63 62 64 68 69 70 71 72 72 73 73 73 73 72 73 73 71 70 71 75 75 76 71 73 70 68 68
61 61 62 62 63 62 61 62 64 64 65 65 67 67 67 68 61 60 63 68 69 69 70 70 72 72 69 64 70 71 72 73 72 65 67 67 67 66 69 69 69 67 70
55 57 59 60 62 61 61 61 62 62 63 64 65 67 65 68 58 58 62 68 68 69 70 70 64 62 58 57 65 69 69 71 72 71 71 69 65 68 65 70 72 68 69
54 54 55 55 57 56 59 60 61 60 62 61 64 67 67 65 63 56 58 64 63 64 65 65 68 60 55 54 55 64 65 67 67 68 69 71 73 74 72 69 71 72 71
52 52 52 52 55 56 53 58 60 60 60 60 60 60 63 61 58 57 55 56 59 60 62 64 65 58 54 54 56 59 58 58 64 66 67 69 70 73 76 75 73 73 76
49 49 49 50 51 52 52 52 55 56 56 57 57 57 59 61 58 56 54 56 58 58 60 59 55 54 53 56 57 56 56 63 64 65 66 69 72 74 76 75 77 74 74
46 46 47 47 47 48 51 53 52 51 51 52 53 52 54 57 57 54 52 52 54 54 55 54 56 56 56 57 60 63 64 64 65 66 67 71 73 73 72 73 73 72 72
45 45 44 45 44 45 47 48 50 49 48 47 47 48 50 51 54 47 45 50 46 46 47 52 55 56 58 59 60 61 63 64 65 66 67 69 70 71 72 70 70 69 72
43 43 43 42 42 43 43 43 49 49 48 46 45 45 50 50 45 44 44 44 43 44 50 51 53 54 56 58 60 62 62 64 63 62 64 64 65 67 69 70 69 69 71
41 42 41 43 42 41 41 41 42 45 48 47 45 45 45 44 44 43 44 41 45 46 48 50 52 54 56 60 62 59 58 60 59 58 58 60 60 62 64 67 69 70 71
41 48 40 40 40 40 40 40 41 40 41 43 46 45 45 44 43 43 43 43 48 48 49 51 55 57 58 58 56 54 53 53 54 54 54 57 58 58 60 62 65 68 69
42 40 39 39 39 40 39 39 39 39 39 39 42 43 45 43 43 43 44 44 45 47 49 51 53 54 54 54 53 54 53 53 52 53 53 54 54 55 56 59 62 58 61
42 50 44 38 38 37 37 37 38 38 38 38 38 39 42 41 40 41 43 45 45 46 47 49 50 51 53 53 52 52 50 51 51 51 51 52 52 54 54 56 56 57 60
41 41 46 38 37 37 37 36 35 35 36 37 38 41 42 39 39 40 41 42 44 45 47 46 47 49 51 52 51 51 50 50 50 50 49 50 50 51 52 53 54 55 57
40 39 38 37 37 37 36 36 35 35 36 37 38 40 42 40 40 40 41 40 41 43 44 45 46 46 48 49 49 48 47 47 48 48 48 48 48 48 48 49 51 52 54
40 39 38 37 37 40 36 35 34 34 35 35 38 38 38 39 40 38 39 40 40 41 44 43 43 44 46 47 48 47 46 45 46 47 45 46 46 46 46 45 47 47 50
40 39 38 37 36 36 36 35 34 36 35 35 36 37 38 38 39 39 39 40 40 40 41 42 42 42 43 44 45 46 46 46 45 45 45 44 43 43 43 43 45 47 48
40 39 37 37 36 36 36 35 34 34 34 34 35 37 38 38 38 38 38 38 38 38 39 40 40 41 41 42 44 44 43 38 40 40 41 41 40 40 40 41 42 44 46
41 39 38 36 36 36 35 34 34 33 33 33 33 36 37 37 37 37 37 36 36 37 37 38 40 40 41 42 42 40 36 34 36 35 37 37 37 38 40 41 42 44 45

GFSGL_sfc_temp_102.txt.gz
Temp
71 71 72 72 73 73 74 74 74 75 74 74 74 74 75 75 76 75 74 75 75 75 75 75 76 76 76 76 75 76 76 75 74 77 76 79 78 79 82 82 83 84 84
71 72 72 73 74 72 73 74 75 74 74 73 74 74 75 75 76 75 75 75 75 75 75 75 75 78 75 75 76 75 76 75 75 73 75 77 77 79 79 79 83 87 83
69 69 70 69 69 69 71 72 74 74 74 73 73 74 74 75 75 74 75 75 74 74 74 74 75 76 75 76 75 75 75 76 74 73 74 76 77 78 79 79 79 80 84
69 69 69 68 68 69 69 70 70 72 74 74 73 73 73 74 74 74 75 75 76 76 75 75 75 75 75 76 75 75 75 75 74 73 74 74 75 78 77 76 78 80 80
69 69 68 69 69 69 69 69 69 70 71 73 73 74 75 75 78 75 75 76 76 76 75 76 77 75 71 72 77 76 75 76 76 74 74 74 76 77 76 77 75 76 78
69 68 68 67 68 67 67 68 68 68 69 70 71 72 73 74 68 66 70 76 76 76 76 77 77 74 74 69 68 69 73 75 75 74 75 74 74 74 75 76 75 74 74
64 65 65 65 65 64 66 66 66 67 68 68 69 70 70 71 62 63 66 71 73 75 75 76 77 81 75 78 72 68 68 66 69 77 75 76 75 77 76 75 74 73 75
61 61 63 65 63 63 63 64 64 64 66 67 68 69 69 70 61 60 63 71 71 72 72 73 73 74 74 73 75 77 78 78 76 76 75 77 78 78 76 78 76 74 75
59 59 60 62 61 61 61 61 63 62 62 65 67 67 69 63 58 59 66 70 70 71 72 71 71 71 61 61 70 73 74 76 73 65 65 65 65 65 68 74 75 73 76
57 57 59 59 59 59 60 61 62 61 62 64 67 67 63 65 56 56 62 65 65 65 68 69 62 62 58 58 64 67 69 71 74 73 75 73 70 73 64 72 76 74 75
56 56 55 56 56 56 58 60 59 59 60 59 60 60 60 58 56 55 55 61 61 63 64 64 66 58 55 55 55 62 65 66 67 71 73 74 76 76 78 76 75 76 76
53 53 53 54 56 56 55 56 56 57 57 57 58 58 60 59 55 54 53 54 57 59 60 62 63 54 51 52 57 58 56 57 67 70 71 72 73 75 77 78 78 76 78
50 50 51 52 53 54 53 53 53 54 55 55 56 55 56 58 57 53 53 53 55 55 58 57 54 52 52 57 57 56 57 68 67 68 70 71 73 76 76 76 78 77 77
48 48 49 49 49 51 53 53 52 52 52 52 52 52 54 55 54 53 54 54 54 54 53 54 56 56 55 58 62 65 66 66 67 67 68 71 73 73 74 76 74 74 75
47 48 47 47 47 48 49 49 51 51 50 51 50 51 51 51 51 47 46 51 50 49 48 56 58 59 60 61 64 67 67 67 62 61 62 63 65 66 67 67 69 70 70
46 47 46 47 47 47 47 48 47 47 46 44 44 46 50 46 44 43 42 43 44 44 52 54 55 56 57 58 61 64 64 62 60 60 60 60 60 61 61 63 64 67 67
44 45 46 46 46 46 45 45 45 47 46 45 43 44 43 42 42 41 41 41 44 46 50 51 53 56 57 59 59 58 58 59 57 59 57 58 60 60 59 59 60 61 62
46 46 45 45 45 45 45 44 45 44 43 44 44 43 42 41 41 41 41 44 49 49 50 50 51 53 54 55 56 57 57 58 58 57 55 56 56 57 57 58 58 57 58
45 44 44 44 44 44 44 44 44 43 43 43 44 43 43 41 41 41 42 46 46 47 48 48 49 49 50 49 52 55 55 55 55 55 54 53 53 53 53 56 57 53 54
46 47 45 44 44 43 43 43 42 42 42 42 42 42 44 44 42 43 44 44 44 44 45 46 47 48 49 49 50 50 51 52 53 53 52 53 52 51 51 52 53 53 55
47 48 46 44 44 44 43 42 42 42 42 42 42 44 41 42 42 42 42 43 43 42 41 43 44 46 47 48 49 49 49 49 50 49 48 49 49 48 49 49 49 50 50
46 45 45 45 44 44 44 43 43 43 43 42 43 43 40 43 42 42 42 42 42 43 43 43 42 43 44 44 45 46 46 46 48 49 48 47 47 46 47 47 47 48 48
46 45 44 44 44 44 44 44 43 43 43 43 43 42 42 41 41 41 41 41 41 41 42 42 42 42 43 43 44 44 41 42 44 45 45 45 45 45 45 44 45 45 45
46 46 45 44 43 43 43 44 43 41 42 43 42 42 42 42 42 41 41 41 41 40 41 40 40 40 41 41 42 42 43 44 45 44 44 43 43 43 43 43 44 44 44
47 46 45 44 43 44 43 43 43 43 42 42 42 42 42 42 42 42 42 42 41 40 39 39 39 39 40 40 40 41 41 36 38 38 39 40 40 40 40 40 41 41 42
47 46 45 44 42 42 42 42 42 42 41 42 41 41 41 41 40 41 41 40 39 39 39 38 38 38 38 38 39 38 35 34 36 34 36 36 36 37 38 38 39 40 41

GFSGL_sfc_temp_105.txt.gz
Temp
82 81 80 81 82 82 82 81 82 83 82 82 82 82 82 83 83 83 83 83 83 83 84 83 83 84 87 88 88 87 87 86 84 89 88 89 86 87 89 90 93 93 95
77 81 81 82 81 81 81 82 81 81 82 82 82 82 83 83 84 82 83 83 83 83 83 83 83 86 83 84 86 83 85 85 83 80 85 88 86 87 87 86 91 95 92
77 74 78 79 80 79 80 80 81 82 82 82 80 82 84 83 82 82 83 83 83 83 84 82 84 84 81 84 83 85 87 86 85 83 84 87 87 89 87 89 88 89 94
71 71 72 75 77 78 77 78 80 81 82 81 82 81 82 83 83 83 83 82 84 85 83 83 84 84 82 83 84 83 83 80 82 80 85 86 87 88 87 87 87 92 90
69 69 68 69 74 76 76 76 77 78 79 81 81 81 81 80 82 82 83 83 83 83 85 84 85 82 73 76 82 82 83 81 82 85 85 87 87 87 85 88 87 89 90
69 68 70 70 73 72 74 74 75 76 77 79 79 79 78 78 64 65 73 83 83 83 83 84 85 77 76 68 68 68 73 79 79 79 80 83 82 84 87 86 85 84 82
66 67 68 66 66 69 72 73 73 74 75 75 76 78 76 72 61 62 66 82 81 81 81 81 81 87 79 83 74 69 69 66 69 80 79 81 81 84 83 81 83 82 83
62 63 64 65 65 68 68 66 68 71 73 74 75 75 71 68 59 60 64 80 79 77 76 76 76 72 65 69 78 82 84 85 84 85 83 83 84 85 83 83 81 80 84
60 61 62 64 66 68 66 65 65 67 69 71 71 69 67 64 56 57 69 76 75 74 74 70 70 68 61 60 73 73 76 81 76 67 65 64 64 64 68 81 82 80 83
58 60 61 64 67 67 67 67 66 66 65 62 63 65 60 62 55 55 64 76 72 74 73 73 62 63 56 56 67 69 69 73 73 76 80 79 73 80 66 78 83 78 77
60 59 59 62 61 62 63 65 65 65 62 61 62 60 59 58 55 54 55 67 70 73 73 73 75 57 53 51 53 71 69 66 71 76 80 83 84 85 87 86 83 80 80
61 62 62 62 65 64 61 60 62 65 64 63 63 64 61 62 54 53 53 54 57 66 67 71 70 52 52 51 60 54 55 59 78 79 80 81 81 82 84 84 82 82 83
60 59 59 60 61 61 61 61 63 63 61 61 65 63 62 62 61 54 54 54 55 62 61 57 54 53 55 62 57 55 59 76 76 74 69 69 72 73 74 76 78 80 82
57 57 59 59 58 60 63 62 62 61 61 61 61 57 59 59 57 58 58 60 58 61 60 63 60 58 56 61 68 72 76 75 72 72 71 72 74 76 76 77 75 77 77
58 58 58 59 59 57 57 59 58 54 54 57 57 58 57 53 50 46 46 53 56 53 51 65 67 67 67 68 69 72 74 73 72 71 71 71 71 72 73 74 73 73 74
58 59 59 60 60 59 58 56 46 46 44 43 43 49 56 45 43 42 41 41 43 45 60 60 61 63 63 62 62 63 68 66 68 68 69 69 69 69 69 70 72 71 70
57 57 57 58 59 58 58 58 55 50 45 43 42 42 42 41 41 40 40 41 46 50 57 58 58 59 60 61 63 65 60 62 62 66 65 65 66 66 65 66 69 69 69
56 51 59 58 59 58 58 58 59 57 56 55 45 45 42 41 41 41 41 47 57 57 58 55 52 54 54 57 59 58 58 57 57 57 57 59 59 60 60 60 62 62 64
58 58 58 58 58 56 57 57 58 57 56 56 57 50 48 42 42 42 44 54 54 54 54 54 55 55 54 54 55 54 55 56 57 58 58 55 55 55 54 54 54 51 52
57 53 56 58 57 57 57 57 56 56 56 55 55 54 54 54 54 53 53 53 53 53 52 51 52 53 53 53 54 54 54 51 50 50 51 53 55 53 51 51 51 50 51
58 56 55 58 57 57 57 56 57 57 56 56 55 50 40 52 53 52 52 52 51 51 51 51 50 51 51 50 50 50 51 52 51 52 52 54 53 52 51 50 49 49 48
60 58 58 58 57 56 57 57 57 57 57 56 57 52 42 55 54 53 52 51 51 49 49 46 45 45 46 44 44 45 44 44 45 48 49 47 46 47 48 48 47 47 47
60 59 58 58 58 54 54 57 58 58 58 59 59 58 56 55 55 53 52 52 51 48 47 45 44 44 45 46 46 45 42 42 43 43 42 42 43 43 45 45 45 45 44
60 60 59 58 56 57 57 57 57 49 56 58 58 58 57 56 55 53 53 53 53 52 51 48 45 43 42 42 44 45 44 44 43 42 42 41 40 41 42 41 42 43 44
61 60 59 58 58 56 57 57 57 57 57 57 57 57 57 56 55 54 54 53 53 52 49 46 47 45 43 42 41 42 40 35 38 37 39 40 38 38 38 38 39 40 41
56 58 59 59 58 58 58 58 57 57 57 57 56 56 56 55 55 54 53 53 52 51 47 45 46 44 43 41 41 38 34 33 36 34 36 36 36 36 37 37 38 38 39

GFSGL_sfc_temp_108.txt.gz
Temp
89 89 89 89 89 88 86 89 88 87 86 88 88 87 88 88 88 86 88 89 87 88 89 88 88 89 92 95 95 94 93 93 88 93 96 97 91 91 93 94 97 97 99
87 87 88 88 88 89 87 89 88 87 87 88 88 87 88 89 88 86 87 91 88 87 88 88 88 92 87 88 92 89 90 90 89 84 90 93 92 92 92 91 96 101 99
87 87 88 86 88 87 88 88 88 87 88 89 87 88 88 89 87 87 88 87 88 89 89 88 88 88 86 89 89 90 93 93 91 90 89 94 95 95 93 93 93 95 101
82 83 84 83 87 86 87 86 87 87 87 88 88 88 88 90 89 90 89 88 88 90 89 89 88 88 86 87 88 86 88 87 89 88 90 93 94 95 95 94 93 97 96
71 77 78 81 82 84 84 84 85 86 87 88 88 88 88 87 91 88 88 88 88 88 88 89 90 86 75 77 87 86 84 86 89 89 89 92 92 90 88 93 92 94 94
72 70 69 71 72 76 81 82 82 83 85 86 86 87 88 87 63 65 73 86 88 87 87 88 90 80 79 70 69 69 74 81 82 85 88 88 85 88 92 91 90 89 86
72 70 69 69 68 69 71 77 80 80 82 82 83 80 75 76 61 62 66 87 86 87 85 86 86 83 77 83 76 68 69 67 69 80 81 84 82 84 84 84 84 85 86
66 67 68 68 68 66 68 69 73 79 79 79 74 75 75 71 59 61 66 81 76 74 75 74 72 71 69 71 82 85 86 87 84 85 83 84 84 83 82 83 81 83 86
64 64 66 66 67 70 70 72 73 68 74 70 73 74 70 66 56 57 71 82 79 78 77 76 77 76 58 58 78 80 81 84 77 68 67 66 66 66 70 83 85 76 83
62 65 68 68 70 69 70 73 75 69 66 66 70 69 62 66 54 55 65 84 79 83 80 76 60 64 56 54 74 77 77 80 79 81 83 82 75 81 66 80 83 75 78
61 64 66 69 70 72 71 74 72 66 65 65 65 65 63 64 60 54 54 71 77 81 81 80 79 57 54 52 54 75 72 69 76 82 86 89 89 90 90 85 84 83 82
63 62 63 67 72 70 69 70 69 67 65 66 67 70 69 65 55 54 54 55 58 73 74 76 73 54 53 54 61 55 54 59 85 85 84 83 81 81 84 84 82 82 83
67 66 68 68 69 70 69 69 70 70 70 68 70 69 70 71 69 55 54 56 58 68 68 62 56 53 55 64 59 59 57 82 81 80 79 80 81 83 81 82 83 82 83
65 65 66 67 67 68 72 72 72 72 71 70 69 68 64 63 58 60 66 68 61 65 63 70 67 61 57 65 71 73 73 79 76 78 77 79 81 81 80 82 79 81 80
66 66 66 67 67 65 61 65 64 57 58 68 68 67 67 64 56 47 47 56 58 58 52 70 69 70 72 72 74 74 75 75 75 75 74 75 76 77 77 79 77 78 77
66 68 70 69 69 67 63 57 46 46 44 43 42 51 56 46 43 42 41 41 43 46 65 68 67 66 67 67 66 69 71 68 68 69 72 72 72 72 72 73 75 73 73
66 65 68 67 69 67 66 64 57 50 45 43 42 43 43 41 42 41 41 41 44 52 66 63 61 61 61 64 65 66 66 67 65 68 67 66 67 67 66 68 70 70 69
66 55 68 68 69 68 68 68 68 65 63 59 45 48 44 42 42 42 43 48 65 64 66 65 64 64 63 60 62 61 61 62 64 63 64 66 66 65 63 63 63 62 62
64 67 68 69 69 66 67 67 67 66 66 65 63 49 50 45 44 44 44 64 63 63 62 62 63 62 62 61 61 61 60 61 58 59 57 58 59 57 58 59 60 53 53
64 59 63 67 65 67 67 67 67 66 66 66 65 64 66 61 64 63 63 62 62 62 61 61 60 60 60 59 58 58 59 59 59 60 60 58 57 55 52 53 54 53 53
66 65 61 68 68 68 68 67 67 67 66 66 64 54 39 62 64 63 63 62 61 61 59 59 57 57 57 56 56 55 56 56 56 56 56 56 55 54 54 55 54 52 52
68 66 65 67 67 65 66 67 66 66 66 66 66 57 45 61 67 66 64 64 63 61 60 56 55 55 56 54 54 54 52 51 50 50 49 48 47 48 50 50 52 53 52
67 66 66 66 66 61 63 66 66 66 66 66 67 67 65 67 67 66 64 65 64 62 62 59 57 55 54 51 50 48 47 47 46 45 43 43 43 43 44 44 46 47 48
68 68 67 66 64 65 65 65 66 57 65 66 66 65 65 65 66 64 63 65 63 63 62 60 58 56 55 52 50 50 48 47 44 43 43 41 40 40 41 41 42 43 44
69 68 67 66 66 64 65 65 66 65 65 64 65 65 66 65 64 64 65 64 63 62 61 60 59 57 55 53 52 49 43 35 40 38 41 42 40 40 40 39 39 39 39
59 62 65 67 66 66 65 65 65 65 65 65 65 65 65 64 64 64 63 63 61 61 60 60 58 54 54 54 53 41 34 33 39 34 40 40 39 39 40 39 38 38 37